| time (UTC) | temp C | wind direction | speed KPH | gust KPH | rain 1hr cm | rain 24hr cm | rain mn cm | humidity % | barometer mb |
| 20260505223404 | 29 | 257 | 1.6 | 3.2 | 0.00 | 0.00 | 0.00 | 33 | 1009.6 |
| 20260505223304 | 29 | 293 | 1.6 | 4.8 | 0.00 | 0.00 | 0.00 | 33 | 1009.7 |
| 20260505223204 | 29 | 73 | 1.6 | 4.8 | 0.00 | 0.00 | 0.00 | 34 | 1009.6 |
| 20260505223104 | 29 | 280 | 3.2 | 11.3 | 0.00 | 0.00 | 0.00 | 33 | 1009.8 |
| 20260505223004 | 28 | 29 | 4.8 | 11.3 | 0.00 | 0.00 | 0.00 | 32 | 1009.5 |
| 20260505222904 | 28 | 1 | 3.2 | 9.7 | 0.00 | 0.00 | 0.00 | 32 | 1009.6 |
| 20260505222804 | 28 | 232 | 1.6 | 9.7 | 0.00 | 0.00 | 0.00 | 34 | 1009.7 |
| 20260505222704 | 28 | 263 | 1.6 | 9.7 | 0.00 | 0.00 | 0.00 | 32 | 1009.6 |
| 20260505222604 | 28 | 307 | 6.4 | 9.7 | 0.00 | 0.00 | 0.00 | 33 | 1009.6 |
| 20260505222504 | 28 | 326 | 6.4 | 9.7 | 0.00 | 0.00 | 0.00 | 34 | 1009.7 |
| 20260505222425 | 28 | 288 | 6.4 | 12.9 | 0.00 | 0.00 | 0.00 | 33 | 1009.6 |
| 20260505222306 | 28 | 286 | 6.4 | 12.9 | 0.00 | 0.00 | 0.00 | 33 | 1009.6 |
| 20260505222204 | 28 | 292 | 3.2 | 6.4 | 0.00 | 0.00 | 0.00 | 33 | 1009.8 |
| 20260505222104 | 28 | 298 | 4.8 | 6.4 | 0.00 | 0.00 | 0.00 | 33 | 1009.6 |
| 20260505222004 | 28 | 293 | 4.8 | 4.8 | 0.00 | 0.00 | 0.00 | 33 | 1009.7 |
| 20260505221904 | 28 | 245 | 0.0 | 4.8 | 0.00 | 0.00 | 0.00 | 34 | 1009.6 |
| 20260505221804 | 28 | 208 | 1.6 | 4.8 | 0.00 | 0.00 | 0.00 | 34 | 1009.5 |
| 20260505221704 | 28 | 261 | 3.2 | 4.8 | 0.00 | 0.00 | 0.00 | 34 | 1009.9 |
| 20260505221604 | 28 | 275 | 1.6 | 4.8 | 0.00 | 0.00 | 0.00 | 33 | 1009.8 |
| 20260505221504 | 28 | 231 | 3.2 | 6.4 | 0.00 | 0.00 | 0.00 | 34 | 1009.7 |
| 20260505221404 | 28 | 241 | 1.6 | 6.4 | 0.00 | 0.00 | 0.00 | 36 | 1009.8 |
| 20260505221304 | 28 | 284 | 3.2 | 6.4 | 0.00 | 0.00 | 0.00 | 33 | 1009.8 |
| 20260505221204 | 28 | 296 | 4.8 | 11.3 | 0.00 | 0.00 | 0.00 | 34 | 1009.8 |
| 20260505221104 | 28 | 314 | 6.4 | 11.3 | 0.00 | 0.00 | 0.00 | 34 | 1009.9 |
| 20260505221004 | 28 | 303 | 6.4 | 12.9 | 0.00 | 0.00 | 0.00 | 34 | 1009.8 |
| 20260505220904 | 28 | 336 | 8.0 | 14.5 | 0.00 | 0.00 | 0.00 | 34 | 1009.9 |
| 20260505220804 | 28 | 288 | 8.0 | 14.5 | 0.00 | 0.00 | 0.00 | 34 | 1009.9 |
| 20260505220704 | 28 | 322 | 9.7 | 14.5 | 0.00 | 0.00 | 0.00 | 33 | 1009.7 |
| 20260505220604 | 28 | 240 | 3.2 | 9.7 | 0.00 | 0.00 | 0.00 | 34 | 1009.9 |
| 20260505220525 | 28 | 265 | 6.4 | 9.7 | 0.00 | 0.00 | 0.00 | 36 | 1009.9 |
| 20260505220425 | 28 | 283 | 4.8 | 9.7 | 0.00 | 0.00 | 0.00 | 34 | 1009.7 |
| 20260505220304 | 28 | 285 | 4.8 | 9.7 | 0.00 | 0.00 | 0.00 | 35 | 1009.8 |
| 20260505220225 | 28 | 284 | 3.2 | 11.3 | 0.00 | 0.00 | 0.00 | 34 | 1009.7 |
| 20260505220104 | 28 | 282 | 6.4 | 11.3 | 0.00 | 0.00 | 0.00 | 34 | 1009.9 |
| 20260505220025 | 28 | 308 | 6.4 | 11.3 | 0.00 | 0.00 | 0.00 | 33 | 1009.8 |
| 20260505215904 | 28 | 307 | 1.6 | 6.4 | 0.00 | 0.00 | 0.00 | 35 | 1010.1 |
| 20260505215804 | 28 | 294 | 4.8 | 6.4 | 0.00 | 0.00 | 0.00 | 36 | 1009.8 |
| 20260505215704 | 28 | 42 | 3.2 | 4.8 | 0.00 | 0.00 | 0.00 | 34 | 1009.9 |
| 20260505215604 | 28 | 284 | 1.6 | 4.8 | 0.00 | 0.00 | 0.00 | 36 | 1009.9 |
| 20260505215504 | 28 | 243 | 3.2 | 4.8 | 0.00 | 0.00 | 0.00 | 35 | 1009.9 |
| 20260505215425 | 28 | 234 | 1.6 | 4.8 | 0.00 | 0.00 | 0.00 | 39 | 1009.8 |
| 20260505215305 | 28 | 29 | 3.2 | 9.7 | 0.00 | 0.00 | 0.00 | 35 | 1010.0 |
| 20260505215204 | 28 | 193 | 3.2 | 9.7 | 0.00 | 0.00 | 0.00 | 35 | 1010.0 |
| 20260505215125 | 28 | 259 | 3.2 | 9.7 | 0.00 | 0.00 | 0.00 | 36 | 1010.0 |
| 20260505215004 | 28 | 254 | 3.2 | 6.4 | 0.00 | 0.00 | 0.00 | 35 | 1010.0 |
| 20260505214904 | 28 | 7 | 4.8 | 6.4 | 0.00 | 0.00 | 0.00 | 35 | 1010.0 |
| 20260505214804 | 28 | 276 | 3.2 | 6.4 | 0.00 | 0.00 | 0.00 | 35 | 1009.9 |
| 20260505214704 | 28 | 292 | 3.2 | 9.7 | 0.00 | 0.00 | 0.00 | 37 | 1010.0 |
| 20260505214604 | 28 | 289 | 4.8 | 9.7 | 0.00 | 0.00 | 0.00 | 34 | 1010.0 |
| 20260505214504 | 28 | 324 | 6.4 | 9.7 | 0.00 | 0.00 | 0.00 | 35 | 1010.1 |
| 20260505214404 | 28 | 264 | 3.2 | 9.7 | 0.00 | 0.00 | 0.00 | 37 | 1010.1 |
| 20260505214304 | 28 | 338 | 1.6 | 6.4 | 0.00 | 0.00 | 0.00 | 36 | 1010.3 |
| 20260505214204 | 28 | 347 | 3.2 | 6.4 | 0.00 | 0.00 | 0.00 | 35 | 1010.1 |
| 20260505214104 | 28 | 354 | 4.8 | 6.4 | 0.00 | 0.00 | 0.00 | 35 | 1009.8 |
| 20260505214004 | 28 | 280 | 3.2 | 4.8 | 0.00 | 0.00 | 0.00 | 35 | 1010.0 |
| 20260505213904 | 28 | 241 | 1.6 | 9.7 | 0.00 | 0.00 | 0.00 | 36 | 1010.0 |
| 20260505213804 | 28 | 231 | 1.6 | 11.3 | 0.00 | 0.00 | 0.00 | 36 | 1010.0 |
| 20260505213704 | 27 | 342 | 8.0 | 11.3 | 0.00 | 0.00 | 0.00 | 35 | 1010.1 |
| 20260505213604 | 27 | 277 | 6.4 | 11.3 | 0.00 | 0.00 | 0.00 | 36 | 1010.1 |
| 20260505213525 | 27 | 269 | 4.8 | 6.4 | 0.00 | 0.00 | 0.00 | 36 | 1010.1 |
| 20260505213404 | 27 | 314 | 3.2 | 6.4 | 0.00 | 0.00 | 0.00 | 35 | 1010.0 |
| 20260505213304 | 27 | 298 | 1.6 | 6.4 | 0.00 | 0.00 | 0.00 | 36 | 1010.1 |
| 20260505213204 | 27 | 333 | 3.2 | 9.7 | 0.00 | 0.00 | 0.00 | 38 | 1010.1 |
| 20260505213104 | 27 | 257 | 3.2 | 11.3 | 0.00 | 0.00 | 0.00 | 38 | 1010.4 |
| 20260505213004 | 27 | 297 | 4.8 | 12.9 | 0.00 | 0.00 | 0.00 | 36 | 1010.1 |
| 20260505212904 | 27 | 331 | 6.4 | 16.1 | 0.00 | 0.00 | 0.00 | 36 | 1010.2 |
| 20260505212804 | 27 | 221 | 4.8 | 16.1 | 0.00 | 0.00 | 0.00 | 38 | 1010.1 |
| 20260505212704 | 27 | 343 | 8.0 | 16.1 | 0.00 | 0.00 | 0.00 | 36 | 1010.2 |
| 20260505212604 | 28 | 343 | 9.7 | 14.5 | 0.00 | 0.00 | 0.00 | 36 | 1010.0 |
| 20260505212504 | 28 | 341 | 9.7 | 14.5 | 0.00 | 0.00 | 0.00 | 36 | 1010.1 |
| 20260505212404 | 27 | 306 | 6.4 | 12.9 | 0.00 | 0.00 | 0.00 | 35 | 1010.1 |
| 20260505212306 | 27 | 259 | 3.2 | 4.8 | 0.00 | 0.00 | 0.00 | 36 | 1010.0 |
| 20260505212204 | 27 | 260 | 3.2 | 9.7 | 0.00 | 0.00 | 0.00 | 36 | 1010.0 |
| 20260505212104 | 27 | 223 | 1.6 | 9.7 | 0.00 | 0.00 | 0.00 | 37 | 1010.1 |
| 20260505212004 | 27 | 263 | 1.6 | 14.5 | 0.00 | 0.00 | 0.00 | 37 | 1010.2 |
| 20260505211904 | 27 | 316 | 6.4 | 14.5 | 0.00 | 0.00 | 0.00 | 38 | 1010.1 |
| 20260505211804 | 27 | 348 | 4.8 | 9.7 | 0.00 | 0.00 | 0.00 | 36 | 1010.0 |
| 20260505211704 | 27 | 241 | 3.2 | 12.9 | 0.00 | 0.00 | 0.00 | 37 | 1010.1 |
| 20260505211625 | 27 | 217 | 1.6 | 12.9 | 0.00 | 0.00 | 0.00 | 37 | 1010.2 |
| 20260505211504 | 28 | 346 | 9.7 | 12.9 | 0.00 | 0.00 | 0.00 | 35 | 1010.1 |
| 20260505211404 | 27 | 9 | 1.6 | 9.7 | 0.00 | 0.00 | 0.00 | 37 | 1010.2 |
| 20260505211304 | 27 | 205 | 1.6 | 3.2 | 0.00 | 0.00 | 0.00 | 37 | 1010.2 |
| 20260505211204 | 27 | 201 | 1.6 | 6.4 | 0.00 | 0.00 | 0.00 | 38 | 1010.1 |
| 20260505211125 | 27 | 209 | 3.2 | 6.4 | 0.00 | 0.00 | 0.00 | 37 | 1010.2 |
| 20260505211025 | 27 | 324 | 4.8 | 9.7 | 0.00 | 0.00 | 0.00 | 37 | 1010.3 |
| 20260505210904 | 27 | 305 | 4.8 | 9.7 | 0.00 | 0.00 | 0.00 | 37 | 1010.0 |
| 20260505210825 | 27 | 335 | 4.8 | 6.4 | 0.00 | 0.00 | 0.00 | 37 | 1010.3 |
| 20260505210704 | 27 | 273 | 3.2 | 9.7 | 0.00 | 0.00 | 0.00 | 37 | 1010.1 |
| 20260505210625 | 27 | 267 | 4.8 | 9.7 | 0.00 | 0.00 | 0.00 | 37 | 1010.3 |
| 20260505210525 | 27 | 299 | 6.4 | 9.7 | 0.00 | 0.00 | 0.00 | 37 | 1010.1 |
| 20260505210404 | 27 | 239 | 1.6 | 4.8 | 0.00 | 0.00 | 0.00 | 37 | 1010.4 |
| 20260505210304 | 27 | 129 | 3.2 | 9.7 | 0.00 | 0.00 | 0.00 | 38 | 1010.5 |
| 20260505210204 | 27 | 88 | 6.4 | 14.5 | 0.00 | 0.00 | 0.00 | 38 | 1010.3 |
| 20260505210104 | 27 | 232 | 8.0 | 14.5 | 0.00 | 0.00 | 0.00 | 38 | 1010.2 |
| 20260505210004 | 27 | 346 | 6.4 | 11.3 | 0.00 | 0.00 | 0.00 | 39 | 1010.2 |
| 20260505205904 | 27 | 322 | 6.4 | 16.1 | 0.00 | 0.00 | 0.00 | 38 | 1010.3 |
| 20260505205804 | 27 | 4 | 8.0 | 16.1 | 0.00 | 0.00 | 0.00 | 38 | 1010.3 |
| 20260505205704 | 27 | 319 | 4.8 | 9.7 | 0.00 | 0.00 | 0.00 | 41 | 1010.3 |
| 20260505205604 | 26 | 345 | 6.4 | 9.7 | 0.00 | 0.00 | 0.00 | 39 | 1010.4 |
| 20260505205504 | 26 | 328 | 4.8 | 11.3 | 0.00 | 0.00 | 0.00 | 40 | 1010.2 |
| 20260505205404 | 26 | 307 | 6.4 | 11.3 | 0.00 | 0.00 | 0.00 | 39 | 1010.3 |
| 20260505205305 | 26 | 316 | 4.8 | 12.9 | 0.00 | 0.00 | 0.00 | 39 | 1010.4 |
| 20260505205225 | 27 | 277 | 4.8 | 12.9 | 0.00 | 0.00 | 0.00 | 40 | 1010.3 |
| 20260505205104 | 27 | 27 | 8.0 | 14.5 | 0.00 | 0.00 | 0.00 | 38 | 1010.5 |
| 20260505205025 | 27 | 349 | 6.4 | 14.5 | 0.00 | 0.00 | 0.00 | 39 | 1010.5 |
| 20260505204904 | 27 | 353 | 9.7 | 14.5 | 0.00 | 0.00 | 0.00 | 39 | 1010.5 |
| 20260505204804 | 27 | 19 | 6.4 | 14.5 | 0.00 | 0.00 | 0.00 | 39 | 1010.5 |
| 20260505204704 | 27 | 172 | 1.6 | 4.8 | 0.00 | 0.00 | 0.00 | 39 | 1010.3 |
| 20260505204604 | 27 | 251 | 0.0 | 3.2 | 0.00 | 0.00 | 0.00 | 39 | 1010.5 |
| 20260505204504 | 27 | 11 | 1.6 | 3.2 | 0.00 | 0.00 | 0.00 | 40 | 1010.3 |
| 20260505204425 | 26 | 131 | 1.6 | 3.2 | 0.00 | 0.00 | 0.00 | 40 | 1010.4 |
| 20260505204304 | 26 | 264 | 1.6 | 11.3 | 0.00 | 0.00 | 0.00 | 39 | 1010.5 |
| 20260505204204 | 26 | 339 | 4.8 | 12.9 | 0.00 | 0.00 | 0.00 | 38 | 1010.4 |
| 20260505204104 | 26 | 339 | 8.0 | 12.9 | 0.00 | 0.00 | 0.00 | 39 | 1010.5 |
| 20260505204004 | 27 | 327 | 9.7 | 12.9 | 0.00 | 0.00 | 0.00 | 39 | 1010.6 |
| 20260505203904 | 27 | 345 | 6.4 | 12.9 | 0.00 | 0.00 | 0.00 | 41 | 1010.6 |
| 20260505203804 | 26 | 23 | 8.0 | 12.9 | 0.00 | 0.00 | 0.00 | 40 | 1010.5 |
| 20260505203725 | 26 | 339 | 8.0 | 12.9 | 0.00 | 0.00 | 0.00 | 39 | 1010.5 |
| 20260505203604 | 26 | 2 | 6.4 | 14.5 | 0.00 | 0.00 | 0.00 | 42 | 1010.4 |
| 20260505203504 | 26 | 348 | 8.0 | 14.5 | 0.00 | 0.00 | 0.00 | 40 | 1010.6 |
| 20260505203404 | 26 | 286 | 4.8 | 16.1 | 0.00 | 0.00 | 0.00 | 41 | 1010.3 |
| 20260505203304 | 26 | 336 | 8.0 | 16.1 | 0.00 | 0.00 | 0.00 | 42 | 1010.6 |
| 20260505203204 | 26 | 346 | 9.7 | 14.5 | 0.00 | 0.00 | 0.00 | 40 | 1010.6 |
| 20260505203104 | 26 | 344 | 6.4 | 11.3 | 0.00 | 0.00 | 0.00 | 40 | 1010.7 |
| 20260505203004 | 26 | 16 | 4.8 | 9.7 | 0.00 | 0.00 | 0.00 | 40 | 1010.5 |
| 20260505202904 | 26 | 278 | 4.8 | 9.7 | 0.00 | 0.00 | 0.00 | 41 | 1010.6 |
| 20260505202804 | 26 | 238 | 3.2 | 6.4 | 0.00 | 0.00 | 0.00 | 40 | 1010.7 |
| 20260505202704 | 26 | 287 | 3.2 | 6.4 | 0.00 | 0.00 | 0.00 | 40 | 1010.6 |
| 20260505202604 | 26 | 264 | 3.2 | 6.4 | 0.00 | 0.00 | 0.00 | 40 | 1010.7 |
| 20260505202504 | 26 | 273 | 4.8 | 6.4 | 0.00 | 0.00 | 0.00 | 40 | 1010.5 |
| 20260505202404 | 26 | 310 | 4.8 | 11.3 | 0.00 | 0.00 | 0.00 | 41 | 1010.6 |
| 20260505202306 | 26 | 296 | 8.0 | 14.5 | 0.00 | 0.00 | 0.00 | 40 | 1010.7 |
| 20260505202204 | 26 | 299 | 9.7 | 14.5 | 0.00 | 0.00 | 0.00 | 41 | 1010.8 |
| 20260505202104 | 26 | 273 | 8.0 | 11.3 | 0.00 | 0.00 | 0.00 | 40 | 1010.7 |
| 20260505202004 | 26 | 320 | 6.4 | 16.1 | 0.00 | 0.00 | 0.00 | 41 | 1010.6 |
| 20260505201904 | 26 | 345 | 9.7 | 16.1 | 0.00 | 0.00 | 0.00 | 40 | 1010.6 |
| 20260505201804 | 26 | 317 | 8.0 | 14.5 | 0.00 | 0.00 | 0.00 | 41 | 1010.7 |
| 20260505201704 | 26 | 332 | 9.7 | 14.5 | 0.00 | 0.00 | 0.00 | 40 | 1010.5 |
| 20260505201625 | 26 | 339 | 9.7 | 12.9 | 0.00 | 0.00 | 0.00 | 41 | 1010.8 |
| 20260505201525 | 26 | 345 | 6.4 | 11.3 | 0.00 | 0.00 | 0.00 | 41 | 1010.5 |
| 20260505201404 | 26 | 308 | 8.0 | 11.3 | 0.00 | 0.00 | 0.00 | 40 | 1010.9 |
| 20260505201304 | 26 | 293 | 3.2 | 11.3 | 0.00 | 0.00 | 0.00 | 41 | 1010.6 |
| 20260505201204 | 26 | 356 | 8.0 | 11.3 | 0.00 | 0.00 | 0.00 | 41 | 1010.6 |
| 20260505201125 | 26 | 332 | 6.4 | 9.7 | 0.00 | 0.00 | 0.00 | 40 | 1010.7 |
| 20260505201004 | 26 | 329 | 4.8 | 9.7 | 0.00 | 0.00 | 0.00 | 40 | 1010.7 |
| 20260505200904 | 26 | 260 | 1.6 | 4.8 | 0.00 | 0.00 | 0.00 | 41 | 1010.5 |
| 20260505200825 | 25 | 235 | 1.6 | 4.8 | 0.00 | 0.00 | 0.00 | 42 | 1010.8 |
| 20260505200704 | 25 | 292 | 4.8 | 9.7 | 0.00 | 0.00 | 0.00 | 42 | 1010.6 |
| 20260505200604 | 25 | 243 | 4.8 | 11.3 | 0.00 | 0.00 | 0.00 | 42 | 1010.6 |
| 20260505200525 | 26 | 300 | 4.8 | 12.9 | 0.00 | 0.00 | 0.00 | 43 | 1010.5 |
| 20260505200404 | 26 | 318 | 8.0 | 14.5 | 0.00 | 0.00 | 0.00 | 41 | 1010.8 |
| 20260505200304 | 26 | 315 | 8.0 | 14.5 | 0.00 | 0.00 | 0.00 | 41 | 1010.6 |
| 20260505200204 | 26 | 330 | 11.3 | 14.5 | 0.00 | 0.00 | 0.00 | 41 | 1010.9 |
| 20260505200104 | 26 | 353 | 4.8 | 9.7 | 0.00 | 0.00 | 0.00 | 42 | 1010.7 |
| 20260505200004 | 25 | 284 | 4.8 | 12.9 | 0.00 | 0.00 | 0.00 | 42 | 1010.8 |
| 20260505195904 | 25 | 319 | 4.8 | 12.9 | 0.00 | 0.00 | 0.00 | 43 | 1010.6 |
| 20260505195804 | 25 | 301 | 8.0 | 11.3 | 0.00 | 0.00 | 0.00 | 43 | 1010.6 |
| 20260505195704 | 25 | 269 | 4.8 | 11.3 | 0.00 | 0.00 | 0.00 | 43 | 1010.8 |
| 20260505195604 | 25 | 323 | 6.4 | 12.9 | 0.00 | 0.00 | 0.00 | 42 | 1010.8 |
| 20260505195504 | 26 | 318 | 8.0 | 12.9 | 0.00 | 0.00 | 0.00 | 42 | 1010.7 |
| 20260505195425 | 26 | 313 | 8.0 | 12.9 | 0.00 | 0.00 | 0.00 | 41 | 1010.5 |
| 20260505195305 | 25 | 257 | 3.2 | 12.9 | 0.00 | 0.00 | 0.00 | 41 | 1010.7 |
| 20260505195204 | 25 | 300 | 6.4 | 12.9 | 0.00 | 0.00 | 0.00 | 42 | 1010.6 |
| 20260505195104 | 25 | 294 | 9.7 | 12.9 | 0.00 | 0.00 | 0.00 | 42 | 1010.7 |
| 20260505195004 | 25 | 256 | 3.2 | 11.3 | 0.00 | 0.00 | 0.00 | 43 | 1010.7 |
| 20260505194904 | 25 | 302 | 4.8 | 11.3 | 0.00 | 0.00 | 0.00 | 41 | 1010.7 |
| 20260505194804 | 25 | 310 | 8.0 | 12.9 | 0.00 | 0.00 | 0.00 | 42 | 1010.7 |
| 20260505194704 | 25 | 276 | 6.4 | 14.5 | 0.00 | 0.00 | 0.00 | 42 | 1010.8 |
| 20260505194604 | 25 | 315 | 9.7 | 14.5 | 0.00 | 0.00 | 0.00 | 41 | 1010.6 |
| 20260505194504 | 25 | 291 | 8.0 | 12.9 | 0.00 | 0.00 | 0.00 | 41 | 1010.7 |
| 20260505194404 | 25 | 252 | 4.8 | 12.9 | 0.00 | 0.00 | 0.00 | 43 | 1010.7 |
| 20260505194304 | 25 | 319 | 8.0 | 12.9 | 0.00 | 0.00 | 0.00 | 42 | 1010.7 |
| 20260505194204 | 25 | 302 | 9.7 | 12.9 | 0.00 | 0.00 | 0.00 | 41 | 1010.7 |
| 20260505194104 | 25 | 332 | 4.8 | 11.3 | 0.00 | 0.00 | 0.00 | 44 | 1010.8 |
| 20260505194004 | 25 | 339 | 6.4 | 12.9 | 0.00 | 0.00 | 0.00 | 42 | 1010.7 |
| 20260505193904 | 25 | 319 | 4.8 | 12.9 | 0.00 | 0.00 | 0.00 | 43 | 1010.7 |
| 20260505193804 | 25 | 351 | 4.8 | 14.5 | 0.00 | 0.00 | 0.00 | 43 | 1010.8 |
| 20260505193704 | 25 | 307 | 4.8 | 14.5 | 0.00 | 0.00 | 0.00 | 42 | 1010.8 |
| 20260505193604 | 25 | 312 | 6.4 | 14.5 | 0.00 | 0.00 | 0.00 | 44 | 1010.8 |
| 20260505193504 | 25 | 266 | 3.2 | 12.9 | 0.00 | 0.00 | 0.00 | 43 | 1010.8 |
| 20260505193404 | 25 | 350 | 8.0 | 14.5 | 0.00 | 0.00 | 0.00 | 42 | 1010.8 |
| 20260505193304 | 25 | 341 | 9.7 | 14.5 | 0.00 | 0.00 | 0.00 | 42 | 1010.7 |
| 20260505193204 | 25 | 315 | 9.7 | 12.9 | 0.00 | 0.00 | 0.00 | 42 | 1010.6 |
| 20260505193104 | 25 | 333 | 4.8 | 14.5 | 0.00 | 0.00 | 0.00 | 44 | 1010.7 |
| 20260505193004 | 25 | 353 | 9.7 | 14.5 | 0.00 | 0.00 | 0.00 | 42 | 1010.8 |
| 20260505192904 | 25 | 329 | 6.4 | 9.7 | 0.00 | 0.00 | 0.00 | 42 | 1010.7 |
| 20260505192804 | 25 | 341 | 6.4 | 9.7 | 0.00 | 0.00 | 0.00 | 42 | 1010.7 |
| 20260505192725 | 24 | 325 | 4.8 | 6.4 | 0.00 | 0.00 | 0.00 | 42 | 1010.7 |
| 20260505192625 | 24 | 307 | 4.8 | 11.3 | 0.00 | 0.00 | 0.00 | 45 | 1010.8 |
| 20260505192504 | 24 | 310 | 6.4 | 11.3 | 0.00 | 0.00 | 0.00 | 43 | 1010.7 |
| 20260505192404 | 24 | 291 | 4.8 | 11.3 | 0.00 | 0.00 | 0.00 | 42 | 1010.8 |
| 20260505192305 | 25 | 314 | 9.7 | 12.9 | 0.00 | 0.00 | 0.00 | 41 | 1010.9 |
| 20260505192204 | 25 | 300 | 9.7 | 12.9 | 0.00 | 0.00 | 0.00 | 42 | 1010.7 |
| 20260505192104 | 24 | 293 | 6.4 | 11.3 | 0.00 | 0.00 | 0.00 | 43 | 1010.7 |
| 20260505192004 | 24 | 335 | 6.4 | 9.7 | 0.00 | 0.00 | 0.00 | 44 | 1010.7 |
| 20260505191904 | 24 | 305 | 4.8 | 9.7 | 0.00 | 0.00 | 0.00 | 43 | 1010.6 |
| 20260505191825 | 24 | 275 | 4.8 | 11.3 | 0.00 | 0.00 | 0.00 | 45 | 1010.7 |
| 20260505191704 | 24 | 330 | 4.8 | 16.1 | 0.00 | 0.00 | 0.00 | 44 | 1010.7 |
| 20260505191604 | 25 | 329 | 9.7 | 16.1 | 0.00 | 0.00 | 0.00 | 43 | 1010.8 |
| 20260505191504 | 25 | 315 | 11.3 | 16.1 | 0.00 | 0.00 | 0.00 | 43 | 1010.9 |
| 20260505191404 | 25 | 298 | 6.4 | 11.3 | 0.00 | 0.00 | 0.00 | 42 | 1010.8 |
| 20260505191304 | 24 | 294 | 4.8 | 6.4 | 0.00 | 0.00 | 0.00 | 44 | 1010.8 |
| 20260505191204 | 24 | 298 | 3.2 | 9.7 | 0.00 | 0.00 | 0.00 | 44 | 1010.8 |
| 20260505191104 | 24 | 219 | 3.2 | 11.3 | 0.00 | 0.00 | 0.00 | 45 | 1010.9 |
| 20260505191004 | 24 | 329 | 4.8 | 14.5 | 0.00 | 0.00 | 0.00 | 43 | 1010.9 |
| 20260505190925 | 24 | 323 | 8.0 | 14.5 | 0.00 | 0.00 | 0.00 | 45 | 1010.8 |
| 20260505190804 | 24 | 312 | 6.4 | 11.3 | 0.00 | 0.00 | 0.00 | 44 | 1011.0 |
| 20260505190704 | 24 | 310 | 6.4 | 12.9 | 0.00 | 0.00 | 0.00 | 43 | 1010.8 |
| 20260505190604 | 25 | 331 | 8.0 | 12.9 | 0.00 | 0.00 | 0.00 | 43 | 1010.9 |
| 20260505190504 | 25 | 323 | 6.4 | 12.9 | 0.00 | 0.00 | 0.00 | 43 | 1010.8 |
| 20260505190404 | 25 | 316 | 3.2 | 6.4 | 0.00 | 0.00 | 0.00 | 43 | 1011.0 |
| 20260505190304 | 25 | 261 | 3.2 | 6.4 | 0.00 | 0.00 | 0.00 | 45 | 1010.7 |
| 20260505190204 | 25 | 253 | 3.2 | 9.7 | 0.00 | 0.00 | 0.00 | 43 | 1010.8 |
| 20260505190104 | 24 | 321 | 1.6 | 9.7 | 0.00 | 0.00 | 0.00 | 45 | 1010.9 |
| 20260505190004 | 24 | 292 | 4.8 | 9.7 | 0.00 | 0.00 | 0.00 | 46 | 1010.8 |
| 20260505185904 | 24 | 351 | 1.6 | 4.8 | 0.00 | 0.00 | 0.00 | 45 | 1010.7 |
| 20260505185804 | 23 | 238 | 3.2 | 6.4 | 0.00 | 0.00 | 0.00 | 46 | 1010.9 |
| 20260505185704 | 23 | 303 | 4.8 | 6.4 | 0.00 | 0.00 | 0.00 | 45 | 1010.9 |
| 20260505185604 | 23 | 307 | 4.8 | 9.7 | 0.00 | 0.00 | 0.00 | 44 | 1010.9 |
| 20260505185504 | 23 | 288 | 6.4 | 11.3 | 0.00 | 0.00 | 0.00 | 45 | 1011.0 |
| 20260505185425 | 23 | 355 | 6.4 | 11.3 | 0.00 | 0.00 | 0.00 | 46 | 1010.8 |
| 20260505185305 | 23 | 290 | 4.8 | 11.3 | 0.00 | 0.00 | 0.00 | 45 | 1010.9 |
| 20260505185204 | 23 | 316 | 6.4 | 12.9 | 0.00 | 0.00 | 0.00 | 44 | 1010.9 |
| 20260505184904 | 23 | 4 | 6.4 | 11.3 | 0.00 | 0.00 | 0.00 | 46 | 1010.9 |
| 20260505184804 | 23 | 330 | 8.0 | 12.9 | 0.00 | 0.00 | 0.00 | 46 | 1010.9 |
| 20260505184704 | 23 | 316 | 9.7 | 12.9 | 0.00 | 0.00 | 0.00 | 46 | 1011.0 |
| 20260505184625 | 23 | 303 | 9.7 | 12.9 | 0.00 | 0.00 | 0.00 | 46 | 1011.0 |
| 20260505184504 | 23 | 317 | 8.0 | 16.1 | 0.00 | 0.00 | 0.00 | 46 | 1010.8 |
| 20260505184404 | 23 | 336 | 9.7 | 16.1 | 0.00 | 0.00 | 0.00 | 46 | 1011.1 |
| 20260505184304 | 23 | 330 | 9.7 | 16.1 | 0.00 | 0.00 | 0.00 | 45 | 1010.9 |
| 20260505184204 | 23 | 334 | 4.8 | 12.9 | 0.00 | 0.00 | 0.00 | 46 | 1010.8 |
| 20260505184104 | 23 | 336 | 3.2 | 12.9 | 0.00 | 0.00 | 0.00 | 45 | 1011.0 |
| 20260505184004 | 23 | 327 | 8.0 | 14.5 | 0.00 | 0.00 | 0.00 | 45 | 1010.9 |
| 20260505183904 | 23 | 357 | 6.4 | 14.5 | 0.00 | 0.00 | 0.00 | 46 | 1011.1 |
| 20260505183825 | 23 | 357 | 8.0 | 14.5 | 0.00 | 0.00 | 0.00 | 45 | 1011.0 |
| 20260505183704 | 23 | 260 | 3.2 | 9.7 | 0.00 | 0.00 | 0.00 | 46 | 1010.9 |
| 20260505183604 | 23 | 323 | 6.4 | 9.7 | 0.00 | 0.00 | 0.00 | 48 | 1011.0 |
| 20260505183525 | 23 | 350 | 4.8 | 9.7 | 0.00 | 0.00 | 0.00 | 46 | 1010.9 |
| 20260505183404 | 23 | 4 | 6.4 | 14.5 | 0.00 | 0.00 | 0.00 | 45 | 1011.0 |
| 20260505183325 | 23 | 1 | 8.0 | 14.5 | 0.00 | 0.00 | 0.00 | 46 | 1011.0 |
| 20260505183204 | 22 | 355 | 8.0 | 14.5 | 0.00 | 0.00 | 0.00 | 47 | 1011.0 |
| 20260505183125 | 22 | 324 | 4.8 | 12.9 | 0.00 | 0.00 | 0.00 | 47 | 1011.0 |
| 20260505183004 | 23 | 301 | 6.4 | 12.9 | 0.00 | 0.00 | 0.00 | 47 | 1011.2 |
| 20260505182925 | 23 | 329 | 9.7 | 12.9 | 0.00 | 0.00 | 0.00 | 46 | 1011.1 |
| 20260505182825 | 23 | 346 | 8.0 | 12.9 | 0.00 | 0.00 | 0.00 | 46 | 1010.9 |
| 20260505182704 | 23 | 316 | 4.8 | 12.9 | 0.00 | 0.00 | 0.00 | 47 | 1011.0 |
| 20260505182604 | 23 | 318 | 6.4 | 12.9 | 0.00 | 0.00 | 0.00 | 46 | 1010.9 |
| 20260505182504 | 23 | 269 | 6.4 | 11.3 | 0.00 | 0.00 | 0.00 | 47 | 1011.0 |
| 20260505182404 | 23 | 295 | 4.8 | 11.3 | 0.00 | 0.00 | 0.00 | 45 | 1011.1 |
| 20260505182325 | 23 | 259 | 3.2 | 9.7 | 0.00 | 0.00 | 0.00 | 47 | 1011.1 |
| 20260505182204 | 23 | 272 | 1.6 | 6.4 | 0.00 | 0.00 | 0.00 | 47 | 1011.1 |
| 20260505182104 | 23 | 253 | 1.6 | 6.4 | 0.00 | 0.00 | 0.00 | 46 | 1010.9 |
| 20260505182004 | 23 | 283 | 3.2 | 6.4 | 0.00 | 0.00 | 0.00 | 47 | 1011.1 |
| 20260505181904 | 22 | 274 | 3.2 | 6.4 | 0.00 | 0.00 | 0.00 | 46 | 1011.0 |
| 20260505181825 | 22 | 253 | 1.6 | 6.4 | 0.00 | 0.00 | 0.00 | 48 | 1011.1 |
| 20260505181704 | 22 | 302 | 3.2 | 6.4 | 0.00 | 0.00 | 0.00 | 48 | 1011.1 |
| 20260505181604 | 22 | 320 | 6.4 | 11.3 | 0.00 | 0.00 | 0.00 | 47 | 1011.1 |
| 20260505181504 | 22 | 301 | 6.4 | 16.1 | 0.00 | 0.00 | 0.00 | 48 | 1010.9 |
| 20260505181404 | 22 | 306 | 8.0 | 16.1 | 0.00 | 0.00 | 0.00 | 48 | 1010.9 |
| 20260505181304 | 22 | 326 | 9.7 | 12.9 | 0.00 | 0.00 | 0.00 | 47 | 1011.1 |
| 20260505181225 | 22 | 335 | 9.7 | 12.9 | 0.00 | 0.00 | 0.00 | 47 | 1011.1 |
| 20260505181104 | 22 | 294 | 8.0 | 12.9 | 0.00 | 0.00 | 0.00 | 49 | 1011.1 |
| 20260505181004 | 22 | 288 | 8.0 | 12.9 | 0.00 | 0.00 | 0.00 | 48 | 1011.1 |
| 20260505180904 | 22 | 298 | 4.8 | 11.3 | 0.00 | 0.00 | 0.00 | 49 | 1011.0 |
| 20260505180804 | 22 | 311 | 8.0 | 11.3 | 0.00 | 0.00 | 0.00 | 49 | 1011.1 |
| 20260505180704 | 22 | 307 | 6.4 | 12.9 | 0.00 | 0.00 | 0.00 | 48 | 1011.1 |
| 20260505180604 | 22 | 302 | 9.7 | 12.9 | 0.00 | 0.00 | 0.00 | 48 | 1011.2 |
| 20260505180504 | 22 | 295 | 8.0 | 16.1 | 0.00 | 0.00 | 0.00 | 48 | 1011.0 |
| 20260505180404 | 22 | 299 | 9.7 | 16.1 | 0.00 | 0.00 | 0.00 | 49 | 1011.2 |
| 20260505180304 | 22 | 275 | 9.7 | 12.9 | 0.00 | 0.00 | 0.00 | 49 | 1011.0 |
| 20260505180204 | 22 | 277 | 8.0 | 12.9 | 0.00 | 0.00 | 0.00 | 49 | 1011.2 |
| 20260505180104 | 22 | 324 | 6.4 | 12.9 | 0.00 | 0.00 | 0.00 | 48 | 1011.2 |
| 20260505180004 | 22 | 296 | 6.4 | 12.9 | 0.00 | 0.00 | 0.00 | 48 | 1011.1 |
| 20260505175904 | 22 | 269 | 8.0 | 12.9 | 0.00 | 0.00 | 0.00 | 49 | 1011.0 |
| 20260505175804 | 22 | 331 | 8.0 | 12.9 | 0.00 | 0.00 | 0.00 | 48 | 1011.3 |
| 20260505175704 | 22 | 293 | 6.4 | 12.9 | 0.00 | 0.00 | 0.00 | 48 | 1011.0 |
| 20260505175604 | 22 | 299 | 3.2 | 9.7 | 0.00 | 0.00 | 0.00 | 49 | 1011.2 |
| 20260505175504 | 22 | 322 | 4.8 | 9.7 | 0.00 | 0.00 | 0.00 | 48 | 1011.0 |
| 20260505175404 | 22 | 307 | 4.8 | 6.4 | 0.00 | 0.00 | 0.00 | 48 | 1011.0 |
| 20260505175305 | 22 | 331 | 4.8 | 6.4 | 0.00 | 0.00 | 0.00 | 50 | 1011.2 |
| 20260505175204 | 22 | 257 | 3.2 | 6.4 | 0.00 | 0.00 | 0.00 | 49 | 1011.1 |
| 20260505175104 | 21 | 260 | 1.6 | 14.5 | 0.00 | 0.00 | 0.00 | 49 | 1011.0 |
| 20260505175004 | 21 | 251 | 3.2 | 14.5 | 0.00 | 0.00 | 0.00 | 50 | 1011.0 |
| 20260505174904 | 21 | 289 | 6.4 | 14.5 | 0.00 | 0.00 | 0.00 | 50 | 1011.0 |
| 20260505174804 | 21 | 294 | 6.4 | 9.7 | 0.00 | 0.00 | 0.00 | 50 | 1010.9 |
| 20260505174704 | 21 | 313 | 6.4 | 9.7 | 0.00 | 0.00 | 0.00 | 51 | 1011.0 |
| 20260505174604 | 21 | 287 | 3.2 | 9.7 | 0.00 | 0.00 | 0.00 | 51 | 1011.0 |
| 20260505174504 | 21 | 337 | 6.4 | 11.3 | 0.00 | 0.00 | 0.00 | 50 | 1011.1 |
| 20260505174404 | 21 | 313 | 6.4 | 12.9 | 0.00 | 0.00 | 0.00 | 52 | 1011.1 |
| 20260505174304 | 21 | 304 | 9.7 | 12.9 | 0.00 | 0.00 | 0.00 | 51 | 1011.2 |
| 20260505174204 | 21 | 309 | 6.4 | 11.3 | 0.00 | 0.00 | 0.00 | 51 | 1011.2 |
| 20260505174104 | 21 | 301 | 4.8 | 14.5 | 0.00 | 0.00 | 0.00 | 51 | 1011.1 |
| 20260505174025 | 21 | 303 | 8.0 | 14.5 | 0.00 | 0.00 | 0.00 | 50 | 1011.1 |
| 20260505173904 | 21 | 327 | 6.4 | 12.9 | 0.00 | 0.00 | 0.00 | 52 | 1011.3 |
| 20260505173804 | 21 | 325 | 6.4 | 12.9 | 0.00 | 0.00 | 0.00 | 51 | 1011.4 |
| 20260505173704 | 21 | 298 | 6.4 | 11.3 | 0.00 | 0.00 | 0.00 | 51 | 1011.0 |
| 20260505173604 | 21 | 303 | 8.0 | 11.3 | 0.00 | 0.00 | 0.00 | 50 | 1011.3 |
| 20260505173504 | 21 | 271 | 3.2 | 9.7 | 0.00 | 0.00 | 0.00 | 51 | 1011.1 |
| 20260505173404 | 21 | 295 | 4.8 | 9.7 | 0.00 | 0.00 | 0.00 | 51 | 1011.1 |
| 20260505173304 | 21 | 300 | 6.4 | 9.7 | 0.00 | 0.00 | 0.00 | 52 | 1011.1 |
| 20260505173204 | 21 | 256 | 4.8 | 11.3 | 0.00 | 0.00 | 0.00 | 52 | 1011.2 |
| 20260505173104 | 21 | 260 | 6.4 | 11.3 | 0.00 | 0.00 | 0.00 | 51 | 1011.2 |
| 20260505173004 | 21 | 297 | 6.4 | 11.3 | 0.00 | 0.00 | 0.00 | 51 | 1011.2 |
| 20260505172925 | 21 | 298 | 6.4 | 11.3 | 0.00 | 0.00 | 0.00 | 51 | 1011.1 |
| 20260505172804 | 20 | 263 | 1.6 | 4.8 | 0.00 | 0.00 | 0.00 | 52 | 1011.2 |
| 20260505172725 | 20 | 272 | 1.6 | 9.7 | 0.00 | 0.00 | 0.00 | 51 | 1011.3 |
| 20260505172604 | 20 | 326 | 6.4 | 11.3 | 0.00 | 0.00 | 0.00 | 52 | 1011.1 |
| 20260505172504 | 20 | 315 | 6.4 | 11.3 | 0.00 | 0.00 | 0.00 | 51 | 1011.2 |
| 20260505172425 | 20 | 273 | 3.2 | 11.3 | 0.00 | 0.00 | 0.00 | 51 | 1011.2 |
| 20260505172325 | 20 | 292 | 6.4 | 11.3 | 0.00 | 0.00 | 0.00 | 51 | 1011.3 |
| 20260505172204 | 20 | 298 | 6.4 | 9.7 | 0.00 | 0.00 | 0.00 | 51 | 1011.1 |
| 20260505172125 | 21 | 277 | 4.8 | 9.7 | 0.00 | 0.00 | 0.00 | 50 | 1011.0 |
| 20260505172004 | 21 | 303 | 6.4 | 9.7 | 0.00 | 0.00 | 0.00 | 52 | 1011.2 |
| 20260505171904 | 21 | 316 | 6.4 | 6.4 | 0.00 | 0.00 | 0.00 | 50 | 1011.2 |
| 20260505171825 | 21 | 321 | 4.8 | 6.4 | 0.00 | 0.00 | 0.00 | 51 | 1011.2 |
| 20260505171704 | 20 | 229 | 3.2 | 9.7 | 0.00 | 0.00 | 0.00 | 52 | 1011.1 |
| 20260505171604 | 20 | 242 | 1.6 | 11.3 | 0.00 | 0.00 | 0.00 | 51 | 1011.1 |
| 20260505171504 | 20 | 311 | 4.8 | 11.3 | 0.00 | 0.00 | 0.00 | 54 | 1011.1 |
| 20260505171404 | 20 | 287 | 4.8 | 6.4 | 0.00 | 0.00 | 0.00 | 53 | 1011.1 |
| 20260505171304 | 20 | 266 | 4.8 | 9.7 | 0.00 | 0.00 | 0.00 | 53 | 1011.0 |
| 20260505171204 | 20 | 297 | 4.8 | 9.7 | 0.00 | 0.00 | 0.00 | 53 | 1011.0 |
| 20260505171104 | 20 | 327 | 6.4 | 9.7 | 0.00 | 0.00 | 0.00 | 53 | 1011.1 |
| 20260505171004 | 20 | 297 | 6.4 | 9.7 | 0.00 | 0.00 | 0.00 | 54 | 1010.9 |
| 20260505170904 | 20 | 269 | 3.2 | 6.4 | 0.00 | 0.00 | 0.00 | 53 | 1011.0 |
| 20260505170804 | 20 | 230 | 6.4 | 11.3 | 0.00 | 0.00 | 0.00 | 53 | 1011.1 |
| 20260505170704 | 20 | 279 | 4.8 | 11.3 | 0.00 | 0.00 | 0.00 | 54 | 1011.0 |
| 20260505170604 | 20 | 287 | 3.2 | 6.4 | 0.00 | 0.00 | 0.00 | 53 | 1010.8 |
| 20260505170504 | 20 | 293 | 4.8 | 11.3 | 0.00 | 0.00 | 0.00 | 53 | 1011.2 |
| 20260505170404 | 19 | 328 | 6.4 | 11.3 | 0.00 | 0.00 | 0.00 | 53 | 1011.1 |
| 20260505170304 | 19 | 295 | 6.4 | 9.7 | 0.00 | 0.00 | 0.00 | 53 | 1011.0 |
| 20260505170204 | 19 | 306 | 6.4 | 11.3 | 0.00 | 0.00 | 0.00 | 54 | 1011.1 |
| 20260505170125 | 19 | 319 | 6.4 | 11.3 | 0.00 | 0.00 | 0.00 | 54 | 1011.2 |
| 20260505170004 | 19 | 344 | 8.0 | 11.3 | 0.00 | 0.00 | 0.00 | 54 | 1011.2 |
| 20260505165904 | 19 | 324 | 8.0 | 11.3 | 0.00 | 0.00 | 0.00 | 54 | 1011.2 |
| 20260505165804 | 19 | 306 | 4.8 | 11.3 | 0.00 | 0.00 | 0.00 | 54 | 1011.0 |
| 20260505165725 | 19 | 300 | 6.4 | 11.3 | 0.00 | 0.00 | 0.00 | 54 | 1011.2 |
| 20260505165604 | 19 | 310 | 6.4 | 9.7 | 0.00 | 0.00 | 0.00 | 54 | 1011.0 |
| 20260505165504 | 19 | 252 | 3.2 | 9.7 | 0.00 | 0.00 | 0.00 | 54 | 1011.2 |
| 20260505165404 | 19 | 315 | 4.8 | 9.7 | 0.00 | 0.00 | 0.00 | 54 | 1011.0 |
| 20260505165306 | 19 | 309 | 6.4 | 9.7 | 0.00 | 0.00 | 0.00 | 53 | 1011.1 |
| 20260505165225 | 19 | 267 | 4.8 | 9.7 | 0.00 | 0.00 | 0.00 | 53 | 1011.1 |
| 20260505165104 | 19 | 239 | 1.6 | 11.3 | 0.00 | 0.00 | 0.00 | 54 | 1011.0 |
| 20260505165004 | 19 | 287 | 8.0 | 11.3 | 0.00 | 0.00 | 0.00 | 52 | 1011.1 |
| 20260505164904 | 18 | 237 | 3.2 | 11.3 | 0.00 | 0.00 | 0.00 | 53 | 1011.1 |
| 20260505164804 | 18 | 280 | 4.8 | 12.9 | 0.00 | 0.00 | 0.00 | 54 | 1011.0 |
| 20260505164704 | 18 | 302 | 8.0 | 12.9 | 0.00 | 0.00 | 0.00 | 53 | 1011.1 |
| 20260505164604 | 19 | 313 | 9.7 | 12.9 | 0.00 | 0.00 | 0.00 | 52 | 1011.0 |
| 20260505164504 | 18 | 268 | 4.8 | 11.3 | 0.00 | 0.00 | 0.00 | 53 | 1011.1 |
| 20260505164404 | 19 | 301 | 8.0 | 14.5 | 0.00 | 0.00 | 0.00 | 53 | 1011.0 |
| 20260505164304 | 19 | 331 | 8.0 | 14.5 | 0.00 | 0.00 | 0.00 | 53 | 1011.1 |
| 20260505164204 | 19 | 308 | 8.0 | 14.5 | 0.00 | 0.00 | 0.00 | 52 | 1011.0 |
| 20260505164104 | 19 | 322 | 4.8 | 9.7 | 0.00 | 0.00 | 0.00 | 53 | 1011.2 |
| 20260505164004 | 19 | 312 | 4.8 | 11.3 | 0.00 | 0.00 | 0.00 | 53 | 1011.1 |
| 20260505163925 | 19 | 298 | 6.4 | 11.3 | 0.00 | 0.00 | 0.00 | 54 | 1011.2 |
| 20260505163804 | 19 | 315 | 8.0 | 9.7 | 0.00 | 0.00 | 0.00 | 52 | 1011.2 |
| 20260505163704 | 19 | 295 | 6.4 | 9.7 | 0.00 | 0.00 | 0.00 | 54 | 1011.0 |
| 20260505163604 | 19 | 346 | 6.4 | 9.7 | 0.00 | 0.00 | 0.00 | 53 | 1011.0 |
| 20260505163504 | 19 | 288 | 6.4 | 11.3 | 0.00 | 0.00 | 0.00 | 54 | 1011.1 |
| 20260505163404 | 19 | 318 | 6.4 | 11.3 | 0.00 | 0.00 | 0.00 | 53 | 1011.0 |
| 20260505163325 | 19 | 312 | 6.4 | 11.3 | 0.00 | 0.00 | 0.00 | 53 | 1011.0 |
| 20260505163225 | 19 | 330 | 6.4 | 11.3 | 0.00 | 0.00 | 0.00 | 53 | 1011.0 |
| 20260505163125 | 19 | 308 | 6.4 | 9.7 | 0.00 | 0.00 | 0.00 | 54 | 1011.0 |
| 20260505163004 | 18 | 256 | 3.2 | 11.3 | 0.00 | 0.00 | 0.00 | 55 | 1011.0 |
| 20260505162904 | 18 | 323 | 8.0 | 11.3 | 0.00 | 0.00 | 0.00 | 55 | 1010.9 |
| 20260505162804 | 18 | 311 | 6.4 | 11.3 | 0.00 | 0.00 | 0.00 | 55 | 1010.9 |
| 20260505162704 | 18 | 312 | 8.0 | 11.3 | 0.00 | 0.00 | 0.00 | 54 | 1011.0 |
| 20260505162604 | 18 | 324 | 6.4 | 12.9 | 0.00 | 0.00 | 0.00 | 55 | 1011.0 |
| 20260505162504 | 18 | 290 | 9.7 | 14.5 | 0.00 | 0.00 | 0.00 | 55 | 1010.9 |
| 20260505162404 | 18 | 341 | 9.7 | 14.5 | 0.00 | 0.00 | 0.00 | 55 | 1010.8 |
| 20260505162306 | 18 | 298 | 9.7 | 12.9 | 0.00 | 0.00 | 0.00 | 55 | 1010.9 |
| 20260505162204 | 18 | 293 | 6.4 | 12.9 | 0.00 | 0.00 | 0.00 | 55 | 1010.8 |
| 20260505162125 | 18 | 294 | 8.0 | 12.9 | 0.00 | 0.00 | 0.00 | 56 | 1010.9 |
| 20260505162025 | 18 | 320 | 9.7 | 12.9 | 0.00 | 0.00 | 0.00 | 55 | 1010.8 |
| 20260505161904 | 18 | 285 | 6.4 | 12.9 | 0.00 | 0.00 | 0.00 | 55 | 1011.0 |
| 20260505161804 | 18 | 314 | 8.0 | 12.9 | 0.00 | 0.00 | 0.00 | 55 | 1011.0 |
| 20260505161725 | 18 | 331 | 9.7 | 12.9 | 0.00 | 0.00 | 0.00 | 56 | 1010.9 |
| 20260505161604 | 18 | 328 | 8.0 | 12.9 | 0.00 | 0.00 | 0.00 | 56 | 1011.1 |
| 20260505161504 | 18 | 309 | 9.7 | 14.5 | 0.00 | 0.00 | 0.00 | 55 | 1011.0 |
| 20260505161404 | 18 | 302 | 9.7 | 14.5 | 0.00 | 0.00 | 0.00 | 56 | 1010.9 |
| 20260505161304 | 18 | 307 | 9.7 | 12.9 | 0.00 | 0.00 | 0.00 | 56 | 1010.8 |
| 20260505161204 | 18 | 287 | 6.4 | 14.5 | 0.00 | 0.00 | 0.00 | 56 | 1010.9 |
| 20260505161104 | 18 | 330 | 9.7 | 14.5 | 0.00 | 0.00 | 0.00 | 56 | 1010.9 |
| 20260505161004 | 18 | 328 | 9.7 | 12.9 | 0.00 | 0.00 | 0.00 | 55 | 1010.9 |
| 20260505160904 | 18 | 322 | 6.4 | 11.3 | 0.00 | 0.00 | 0.00 | 56 | 1010.7 |
| 20260505160804 | 18 | 319 | 6.4 | 11.3 | 0.00 | 0.00 | 0.00 | 56 | 1010.9 |
| 20260505160704 | 17 | 304 | 6.4 | 9.7 | 0.00 | 0.00 | 0.00 | 56 | 1010.7 |
| 20260505160604 | 17 | 302 | 4.8 | 11.3 | 0.00 | 0.00 | 0.00 | 57 | 1010.9 |
| 20260505160504 | 17 | 302 | 6.4 | 12.9 | 0.00 | 0.00 | 0.00 | 57 | 1010.9 |
| 20260505160404 | 17 | 314 | 8.0 | 12.9 | 0.00 | 0.00 | 0.00 | 57 | 1010.7 |
| 20260505160304 | 17 | 305 | 8.0 | 12.9 | 0.00 | 0.00 | 0.00 | 57 | 1010.8 |
| 20260505160204 | 17 | 296 | 8.0 | 11.3 | 0.00 | 0.00 | 0.00 | 56 | 1011.0 |
| 20260505160104 | 17 | 295 | 8.0 | 11.3 | 0.00 | 0.00 | 0.00 | 57 | 1010.7 |
| 20260505153304 | 17 | 307 | 8.0 | 12.9 | 0.00 | 0.00 | 0.00 | 57 | 1010.6 |
| 20260505153204 | 17 | 319 | 8.0 | 12.9 | 0.00 | 0.00 | 0.00 | 57 | 1010.5 |
| 20260505153104 | 17 | 314 | 8.0 | 11.3 | 0.00 | 0.00 | 0.00 | 56 | 1010.5 |
| 20260505153025 | 17 | 317 | 8.0 | 12.9 | 0.00 | 0.00 | 0.00 | 56 | 1010.6 |
| 20260505152925 | 17 | 328 | 6.4 | 12.9 | 0.00 | 0.00 | 0.00 | 57 | 1010.5 |
| 20260505152804 | 17 | 349 | 6.4 | 11.3 | 0.00 | 0.00 | 0.00 | 57 | 1010.5 |
| 20260505152704 | 17 | 338 | 6.4 | 11.3 | 0.00 | 0.00 | 0.00 | 57 | 1010.2 |
| 20260505152604 | 17 | 5 | 6.4 | 11.3 | 0.00 | 0.00 | 0.00 | 58 | 1010.4 |
| 20260505152504 | 17 | 319 | 6.4 | 11.3 | 0.00 | 0.00 | 0.00 | 58 | 1010.3 |
| 20260505152425 | 17 | 336 | 6.4 | 9.7 | 0.00 | 0.00 | 0.00 | 58 | 1010.5 |
| 20260505152305 | 17 | 315 | 6.4 | 9.7 | 0.00 | 0.00 | 0.00 | 58 | 1010.4 |
| 20260505152225 | 17 | 334 | 6.4 | 9.7 | 0.00 | 0.00 | 0.00 | 58 | 1010.4 |
| 20260505152104 | 17 | 311 | 6.4 | 11.3 | 0.00 | 0.00 | 0.00 | 58 | 1010.3 |
| 20260505152004 | 17 | 312 | 6.4 | 11.3 | 0.00 | 0.00 | 0.00 | 58 | 1010.4 |
| 20260505151904 | 17 | 330 | 4.8 | 9.7 | 0.00 | 0.00 | 0.00 | 58 | 1010.2 |
| 20260505151804 | 17 | 304 | 3.2 | 9.7 | 0.00 | 0.00 | 0.00 | 58 | 1010.3 |
| 20260505151704 | 17 | 274 | 1.6 | 3.2 | 0.00 | 0.00 | 0.00 | 58 | 1010.3 |
| 20260505151604 | 17 | 267 | 1.6 | 3.2 | 0.00 | 0.00 | 0.00 | 58 | 1010.2 |
| 20260505151504 | 17 | 248 | 0.0 | 3.2 | 0.00 | 0.00 | 0.00 | 59 | 1010.3 |
| 20260505151404 | 17 | 243 | 0.0 | 3.2 | 0.00 | 0.00 | 0.00 | 60 | 1010.3 |
| 20260505151304 | 17 | 267 | 1.6 | 3.2 | 0.00 | 0.00 | 0.00 | 60 | 1010.3 |
| 20260505151204 | 17 | 261 | 1.6 | 4.8 | 0.00 | 0.00 | 0.00 | 59 | 1010.4 |
| 20260505151104 | 17 | 320 | 3.2 | 4.8 | 0.00 | 0.00 | 0.00 | 60 | 1010.4 |
| 20260505151004 | 17 | 320 | 3.2 | 6.4 | 0.00 | 0.00 | 0.00 | 60 | 1010.1 |
| 20260505150904 | 17 | 308 | 4.8 | 6.4 | 0.00 | 0.00 | 0.00 | 60 | 1010.2 |
| 20260505150804 | 17 | 316 | 4.8 | 9.7 | 0.00 | 0.00 | 0.00 | 59 | 1010.1 |
| 20260505150704 | 17 | 312 | 4.8 | 9.7 | 0.00 | 0.00 | 0.00 | 60 | 1010.2 |
| 20260505150625 | 17 | 314 | 6.4 | 9.7 | 0.00 | 0.00 | 0.00 | 60 | 1010.3 |
| 20260505150525 | 17 | 332 | 4.8 | 9.7 | 0.00 | 0.00 | 0.00 | 59 | 1010.4 |
| 20260505150404 | 17 | 310 | 4.8 | 6.4 | 0.00 | 0.00 | 0.00 | 60 | 1010.1 |
| 20260505150304 | 17 | 290 | 4.8 | 6.4 | 0.00 | 0.00 | 0.00 | 60 | 1010.3 |
| 20260505150204 | 17 | 297 | 4.8 | 6.4 | 0.00 | 0.00 | 0.00 | 60 | 1010.2 |
| 20260505150104 | 17 | 287 | 4.8 | 4.8 | 0.00 | 0.00 | 0.00 | 60 | 1010.2 |
| 20260505140604 | 15 | 301 | 4.8 | 6.4 | 0.00 | 0.00 | 0.00 | 68 | 1009.5 |
| 20260505140504 | 15 | 293 | 4.8 | 6.4 | 0.00 | 0.00 | 0.00 | 68 | 1009.5 |
| 20260505140425 | 15 | 288 | 4.8 | 6.4 | 0.00 | 0.00 | 0.00 | 68 | 1009.6 |
| 20260505140304 | 15 | 288 | 6.4 | 6.4 | 0.00 | 0.00 | 0.00 | 68 | 1009.6 |
| 20260505140225 | 15 | 290 | 4.8 | 9.7 | 0.00 | 0.00 | 0.00 | 68 | 1009.6 |
| 20260505140104 | 15 | 266 | 4.8 | 9.7 | 0.00 | 0.00 | 0.00 | 68 | 1009.6 |
| 20260505130304 | 14 | 280 | 3.2 | 6.4 | 0.00 | 0.00 | 0.00 | 71 | 1008.9 |
| 20260505130204 | 14 | 279 | 3.2 | 6.4 | 0.00 | 0.00 | 0.00 | 71 | 1008.8 |
| 20260505130103 | 14 | 266 | 1.6 | 1.6 | 0.00 | 0.00 | 0.00 | 71 | 1008.8 |
| 20260505125004 | 13 | 256 | 1.6 | 1.6 | 0.00 | 0.00 | 0.00 | 72 | 1008.8 |
| 20260505124925 | 13 | 257 | 1.6 | 1.6 | 0.00 | 0.00 | 0.00 | 72 | 1008.8 |
| 20260505124804 | 13 | 251 | 0.0 | 3.2 | 0.00 | 0.00 | 0.00 | 72 | 1008.7 |
| 20260505124703 | 13 | 271 | 1.6 | 3.2 | 0.00 | 0.00 | 0.00 | 72 | 1008.7 |
| 20260505124604 | 13 | 263 | 1.6 | 3.2 | 0.00 | 0.00 | 0.00 | 71 | 1008.9 |
| 20260505124504 | 13 | 260 | 1.6 | 3.2 | 0.00 | 0.00 | 0.00 | 71 | 1008.6 |
| 20260505124404 | 13 | 261 | 1.6 | 4.8 | 0.00 | 0.00 | 0.00 | 71 | 1008.8 |
| 20260505124304 | 13 | 271 | 3.2 | 4.8 | 0.00 | 0.00 | 0.00 | 71 | 1008.8 |
| 20260505124203 | 13 | 272 | 1.6 | 3.2 | 0.00 | 0.00 | 0.00 | 71 | 1008.8 |
| 20260505124104 | 14 | 272 | 1.6 | 3.2 | 0.00 | 0.00 | 0.00 | 71 | 1008.8 |
| 20260505124004 | 14 | 269 | 1.6 | 3.2 | 0.00 | 0.00 | 0.00 | 71 | 1008.6 |
| 20260505123904 | 14 | 261 | 1.6 | 4.8 | 0.00 | 0.00 | 0.00 | 71 | 1008.5 |
| 20260505123804 | 14 | 290 | 3.2 | 4.8 | 0.00 | 0.00 | 0.00 | 71 | 1008.7 |
| 20260505123704 | 14 | 306 | 3.2 | 3.2 | 0.00 | 0.00 | 0.00 | 71 | 1008.5 |
| 20260505123604 | 14 | 287 | 1.6 | 9.7 | 0.00 | 0.00 | 0.00 | 71 | 1008.7 |
| 20260505123525 | 14 | 293 | 3.2 | 9.7 | 0.00 | 0.00 | 0.00 | 71 | 1008.6 |
| 20260505123425 | 14 | 330 | 4.8 | 9.7 | 0.00 | 0.00 | 0.00 | 71 | 1008.5 |
| 20260505123304 | 14 | 340 | 6.4 | 6.4 | 0.00 | 0.00 | 0.00 | 72 | 1008.6 |
| 20260505123204 | 14 | 309 | 4.8 | 6.4 | 0.00 | 0.00 | 0.00 | 72 | 1008.6 |
| 20260505123104 | 14 | 325 | 4.8 | 6.4 | 0.00 | 0.00 | 0.00 | 72 | 1008.4 |
| 20260505123004 | 14 | 286 | 3.2 | 9.7 | 0.00 | 0.00 | 0.00 | 72 | 1008.5 |
| 20260505122904 | 14 | 331 | 6.4 | 9.7 | 0.00 | 0.00 | 0.00 | 72 | 1008.4 |
| 20260505122804 | 14 | 300 | 4.8 | 6.4 | 0.00 | 0.00 | 0.00 | 72 | 1008.5 |
| 20260505122704 | 14 | 313 | 4.8 | 6.4 | 0.00 | 0.00 | 0.00 | 72 | 1008.5 |
| 20260505122604 | 14 | 305 | 3.2 | 3.2 | 0.00 | 0.00 | 0.00 | 73 | 1008.5 |
| 20260505122504 | 14 | 277 | 1.6 | 3.2 | 0.00 | 0.00 | 0.00 | 73 | 1008.4 |
| 20260505122403 | 14 | 280 | 1.6 | 3.2 | 0.00 | 0.00 | 0.00 | 73 | 1008.5 |
| 20260505122305 | 14 | 284 | 1.6 | 3.2 | 0.00 | 0.00 | 0.00 | 73 | 1008.3 |
| 20260505122204 | 14 | 267 | 3.2 | 4.8 | 0.00 | 0.00 | 0.00 | 73 | 1008.3 |
| 20260505122103 | 14 | 270 | 3.2 | 4.8 | 0.00 | 0.00 | 0.00 | 73 | 1008.3 |
| 20260505122025 | 14 | 271 | 3.2 | 4.8 | 0.00 | 0.00 | 0.00 | 73 | 1008.5 |
| 20260505121904 | 14 | 262 | 1.6 | 3.2 | 0.00 | 0.00 | 0.00 | 73 | 1008.4 |
| 20260505121804 | 14 | 274 | 1.6 | 3.2 | 0.00 | 0.00 | 0.00 | 72 | 1008.3 |
| 20260505121704 | 14 | 270 | 1.6 | 1.6 | 0.00 | 0.00 | 0.00 | 72 | 1008.3 |
| 20260505121603 | 14 | 257 | 1.6 | 3.2 | 0.00 | 0.00 | 0.00 | 72 | 1008.2 |
| 20260505121504 | 14 | 277 | 1.6 | 6.4 | 0.00 | 0.00 | 0.00 | 72 | 1008.3 |
| 20260505121404 | 14 | 294 | 3.2 | 6.4 | 0.00 | 0.00 | 0.00 | 72 | 1008.3 |
| 20260505121304 | 14 | 296 | 4.8 | 6.4 | 0.00 | 0.00 | 0.00 | 72 | 1008.3 |
| 20260505121204 | 14 | 296 | 3.2 | 4.8 | 0.00 | 0.00 | 0.00 | 72 | 1008.1 |
| 20260505121104 | 14 | 285 | 3.2 | 4.8 | 0.00 | 0.00 | 0.00 | 72 | 1008.3 |
| 20260505121004 | 14 | 290 | 3.2 | 4.8 | 0.00 | 0.00 | 0.00 | 72 | 1008.1 |
| 20260505120904 | 14 | 287 | 4.8 | 6.4 | 0.00 | 0.00 | 0.00 | 72 | 1008.2 |
| 20260505120804 | 14 | 327 | 4.8 | 6.4 | 0.00 | 0.00 | 0.00 | 73 | 1008.0 |
| 20260505120704 | 14 | 275 | 3.2 | 4.8 | 0.00 | 0.00 | 0.00 | 73 | 1008.1 |
| 20260505120604 | 14 | 284 | 3.2 | 4.8 | 0.00 | 0.00 | 0.00 | 73 | 1008.2 |
| 20260505120504 | 14 | 286 | 3.2 | 4.8 | 0.00 | 0.00 | 0.00 | 74 | 1008.0 |
| 20260505120403 | 14 | 301 | 3.2 | 4.8 | 0.00 | 0.00 | 0.00 | 74 | 1008.2 |
| 20260505120304 | 14 | 284 | 3.2 | 4.8 | 0.00 | 0.00 | 0.00 | 74 | 1008.2 |
| 20260505120204 | 15 | 263 | 1.6 | 3.2 | 0.00 | 0.00 | 0.00 | 74 | 1008.2 |
| 20260505120104 | 15 | 298 | 3.2 | 4.8 | 0.00 | 0.00 | 0.00 | 73 | 1008.1 |
| 20260505120025 | 15 | 271 | 3.2 | 4.8 | 0.00 | 0.00 | 0.00 | 74 | 1008.1 |
| 20260505115904 | 15 | 298 | 3.2 | 4.8 | 0.00 | 0.00 | 0.00 | 74 | 1008.1 |
| 20260505115804 | 15 | 266 | 1.6 | 3.2 | 0.00 | 0.00 | 0.00 | 74 | 1007.9 |
| 20260505115704 | 15 | 266 | 1.6 | 3.2 | 0.00 | 0.00 | 0.00 | 74 | 1007.9 |
| 20260505115604 | 15 | 269 | 1.6 | 3.2 | 0.00 | 0.00 | 0.00 | 74 | 1008.2 |
| 20260505115525 | 15 | 292 | 1.6 | 3.2 | 0.00 | 0.00 | 0.00 | 74 | 1007.9 |
| 20260505115404 | 15 | 268 | 1.6 | 1.6 | 0.00 | 0.00 | 0.00 | 74 | 1008.0 |
| 20260505115305 | 15 | 260 | 1.6 | 1.6 | 0.00 | 0.00 | 0.00 | 74 | 1008.0 |
| 20260505115204 | 15 | 258 | 1.6 | 3.2 | 0.00 | 0.00 | 0.00 | 74 | 1008.0 |
| 20260505115104 | 15 | 252 | 1.6 | 3.2 | 0.00 | 0.00 | 0.00 | 74 | 1007.8 |
| 20260505115004 | 15 | 267 | 1.6 | 3.2 | 0.00 | 0.00 | 0.00 | 74 | 1008.0 |
| 20260505114904 | 15 | 264 | 1.6 | 4.8 | 0.00 | 0.00 | 0.00 | 73 | 1008.1 |
| 20260505114804 | 15 | 283 | 3.2 | 4.8 | 0.00 | 0.00 | 0.00 | 73 | 1007.8 |
| 20260505114704 | 15 | 272 | 1.6 | 4.8 | 0.00 | 0.00 | 0.00 | 74 | 1008.0 |
| 20260505114604 | 15 | 276 | 3.2 | 4.8 | 0.00 | 0.00 | 0.00 | 74 | 1008.1 |
| 20260505114525 | 15 | 279 | 3.2 | 4.8 | 0.00 | 0.00 | 0.00 | 74 | 1008.1 |
| 20260505114425 | 15 | 264 | 1.6 | 4.8 | 0.00 | 0.00 | 0.00 | 74 | 1008.0 |
| 20260505114304 | 15 | 254 | 1.6 | 3.2 | 0.00 | 0.00 | 0.00 | 74 | 1008.1 |
| 20260505114204 | 15 | 259 | 3.2 | 3.2 | 0.00 | 0.00 | 0.00 | 74 | 1007.9 |
| 20260505114125 | 15 | 256 | 1.6 | 3.2 | 0.00 | 0.00 | 0.00 | 74 | 1007.9 |
| 20260505114003 | 15 | 249 | 0.0 | 3.2 | 0.00 | 0.00 | 0.00 | 74 | 1007.9 |
| 20260505113925 | 15 | 250 | 1.6 | 3.2 | 0.00 | 0.00 | 0.00 | 74 | 1007.9 |
| 20260505113804 | 15 | 263 | 1.6 | 4.8 | 0.00 | 0.00 | 0.00 | 74 | 1008.0 |
| 20260505113704 | 15 | 272 | 1.6 | 4.8 | 0.00 | 0.00 | 0.00 | 74 | 1007.8 |
| 20260505113604 | 15 | 257 | 1.6 | 3.2 | 0.00 | 0.00 | 0.00 | 74 | 1007.9 |
| 20260505113504 | 15 | 263 | 1.6 | 3.2 | 0.00 | 0.00 | 0.00 | 74 | 1007.8 |
| 20260505113403 | 15 | 269 | 1.6 | 3.2 | 0.00 | 0.00 | 0.00 | 74 | 1007.9 |
| 20260505113325 | 15 | 281 | 1.6 | 3.2 | 0.00 | 0.00 | 0.00 | 74 | 1008.0 |
| 20260505113203 | 15 | 291 | 3.2 | 4.8 | 0.00 | 0.00 | 0.00 | 74 | 1007.9 |
| 20260505113104 | 15 | 294 | 1.6 | 4.8 | 0.00 | 0.00 | 0.00 | 74 | 1008.0 |
| 20260505113004 | 15 | 281 | 3.2 | 4.8 | 0.00 | 0.00 | 0.00 | 74 | 1008.0 |
| 20260505112904 | 15 | 282 | 3.2 | 4.8 | 0.00 | 0.00 | 0.00 | 74 | 1007.9 |
| 20260505112804 | 15 | 277 | 3.2 | 4.8 | 0.00 | 0.00 | 0.00 | 74 | 1008.0 |
| 20260505112724 | 15 | 267 | 3.2 | 4.8 | 0.00 | 0.00 | 0.00 | 74 | 1007.9 |
| 20260505112603 | 15 | 276 | 3.2 | 4.8 | 0.00 | 0.00 | 0.00 | 74 | 1007.8 |
| 20260505112525 | 15 | 266 | 1.6 | 4.8 | 0.00 | 0.00 | 0.00 | 74 | 1007.9 |
| 20260505112404 | 15 | 272 | 3.2 | 3.2 | 0.00 | 0.00 | 0.00 | 74 | 1008.1 |
| 20260505112305 | 15 | 263 | 1.6 | 3.2 | 0.00 | 0.00 | 0.00 | 74 | 1008.0 |
| 20260505112204 | 15 | 279 | 1.6 | 3.2 | 0.00 | 0.00 | 0.00 | 74 | 1007.9 |
| 20260505112125 | 15 | 279 | 1.6 | 3.2 | 0.00 | 0.00 | 0.00 | 74 | 1007.8 |
| 20260505112004 | 15 | 268 | 1.6 | 4.8 | 0.00 | 0.00 | 0.00 | 74 | 1007.9 |
| 20260505111904 | 15 | 264 | 3.2 | 4.8 | 0.00 | 0.00 | 0.00 | 74 | 1007.8 |
| 20260505111804 | 15 | 264 | 3.2 | 4.8 | 0.00 | 0.00 | 0.00 | 74 | 1007.6 |
| 20260505111704 | 15 | 275 | 1.6 | 3.2 | 0.00 | 0.00 | 0.00 | 74 | 1007.7 |
| 20260505111604 | 15 | 265 | 1.6 | 3.2 | 0.00 | 0.00 | 0.00 | 74 | 1007.6 |
| 20260505111504 | 15 | 274 | 3.2 | 3.2 | 0.00 | 0.00 | 0.00 | 74 | 1007.6 |
| 20260505111424 | 15 | 263 | 1.6 | 4.8 | 0.00 | 0.00 | 0.00 | 74 | 1007.7 |
| 20260505111325 | 15 | 262 | 1.6 | 4.8 | 0.00 | 0.00 | 0.00 | 74 | 1007.6 |
| 20260505111225 | 15 | 278 | 3.2 | 4.8 | 0.00 | 0.00 | 0.00 | 74 | 1007.8 |
| 20260505111104 | 15 | 266 | 3.2 | 4.8 | 0.00 | 0.00 | 0.00 | 74 | 1007.6 |
| 20260505111004 | 15 | 262 | 1.6 | 3.2 | 0.00 | 0.00 | 0.00 | 74 | 1007.5 |
| 20260505110903 | 15 | 252 | 1.6 | 3.2 | 0.00 | 0.00 | 0.00 | 74 | 1007.7 |
| 20260505110803 | 15 | 282 | 3.2 | 4.8 | 0.00 | 0.00 | 0.00 | 74 | 1007.6 |
| 20260505110704 | 15 | 243 | 1.6 | 4.8 | 0.00 | 0.00 | 0.00 | 74 | 1007.5 |
| 20260505110604 | 15 | 256 | 1.6 | 3.2 | 0.00 | 0.00 | 0.00 | 74 | 1007.7 |
| 20260505110504 | 15 | 264 | 1.6 | 3.2 | 0.00 | 0.00 | 0.00 | 74 | 1007.5 |
| 20260505110404 | 15 | 264 | 1.6 | 3.2 | 0.00 | 0.00 | 0.00 | 74 | 1007.4 |
| 20260505110304 | 15 | 270 | 1.6 | 4.8 | 0.00 | 0.00 | 0.00 | 74 | 1007.5 |
| 20260505110204 | 15 | 286 | 3.2 | 4.8 | 0.00 | 0.00 | 0.00 | 73 | 1007.5 |
| 20260505110104 | 15 | 277 | 3.2 | 4.8 | 0.00 | 0.00 | 0.00 | 73 | 1007.4 |
| 20260505102203 | 16 | 258 | 1.6 | 4.8 | 0.00 | 0.00 | 0.00 | 69 | 1007.0 |
| 20260505102104 | 16 | 284 | 3.2 | 4.8 | 0.00 | 0.00 | 0.00 | 69 | 1007.0 |
| 20260505102004 | 16 | 244 | 1.6 | 4.8 | 0.00 | 0.00 | 0.00 | 69 | 1006.8 |
| 20260505101904 | 17 | 259 | 3.2 | 4.8 | 0.00 | 0.00 | 0.00 | 69 | 1006.7 |
| 20260505101803 | 17 | 256 | 1.6 | 4.8 | 0.00 | 0.00 | 0.00 | 68 | 1007.0 |
| 20260505101704 | 17 | 249 | 0.0 | 3.2 | 0.00 | 0.00 | 0.00 | 67 | 1006.9 |
| 20260505101604 | 17 | 244 | 0.0 | 3.2 | 0.00 | 0.00 | 0.00 | 66 | 1006.6 |
| 20260505101504 | 17 | 244 | 1.6 | 3.2 | 0.00 | 0.00 | 0.00 | 66 | 1006.7 |
| 20260505101404 | 17 | 267 | 1.6 | 3.2 | 0.00 | 0.00 | 0.00 | 65 | 1006.6 |
| 20260505101304 | 17 | 273 | 1.6 | 3.2 | 0.00 | 0.00 | 0.00 | 65 | 1006.7 |
| 20260505101204 | 17 | 276 | 1.6 | 3.2 | 0.00 | 0.00 | 0.00 | 65 | 1006.6 |
| 20260505101104 | 17 | 276 | 1.6 | 3.2 | 0.00 | 0.00 | 0.00 | 65 | 1006.6 |
| 20260505101025 | 17 | 278 | 1.6 | 3.2 | 0.00 | 0.00 | 0.00 | 65 | 1006.6 |
| 20260505100904 | 17 | 260 | 1.6 | 1.6 | 0.00 | 0.00 | 0.00 | 65 | 1006.6 |
| 20260505100825 | 17 | 255 | 1.6 | 1.6 | 0.00 | 0.00 | 0.00 | 65 | 1006.7 |
| 20260505100704 | 17 | 251 | 0.0 | 1.6 | 0.00 | 0.00 | 0.00 | 65 | 1006.6 |
| 20260505100603 | 17 | 252 | 1.6 | 1.6 | 0.00 | 0.00 | 0.00 | 65 | 1006.7 |
| 20260505100504 | 16 | 258 | 1.6 | 1.6 | 0.00 | 0.00 | 0.00 | 65 | 1006.5 |
| 20260505100404 | 16 | 257 | 1.6 | 1.6 | 0.00 | 0.00 | 0.00 | 66 | 1006.6 |
| 20260505100304 | 17 | 253 | 1.6 | 1.6 | 0.00 | 0.00 | 0.00 | 67 | 1006.6 |
| 20260505100204 | 17 | 253 | 1.6 | 1.6 | 0.00 | 0.00 | 0.00 | 67 | 1006.7 |
| 20260505100103 | 17 | 257 | 1.6 | 1.6 | 0.00 | 0.00 | 0.00 | 67 | 1006.7 |
| 20260505100024 | 17 | 254 | 0.0 | 1.6 | 0.00 | 0.00 | 0.00 | 67 | 1006.4 |
| 20260505095903 | 17 | 256 | 1.6 | 1.6 | 0.00 | 0.00 | 0.00 | 67 | 1006.7 |
| 20260505095803 | 17 | 260 | 1.6 | 1.6 | 0.00 | 0.00 | 0.00 | 66 | 1006.5 |
| 20260505095703 | 17 | 261 | 1.6 | 1.6 | 0.00 | 0.00 | 0.00 | 66 | 1006.5 |
| 20260505095604 | 17 | 261 | 1.6 | 3.2 | 0.00 | 0.00 | 0.00 | 66 | 1006.5 |
| 20260505095503 | 17 | 254 | 1.6 | 3.2 | 0.00 | 0.00 | 0.00 | 66 | 1006.6 |
| 20260505095424 | 17 | 258 | 1.6 | 3.2 | 0.00 | 0.00 | 0.00 | 66 | 1006.5 |
| 20260505095305 | 17 | 259 | 1.6 | 3.2 | 0.00 | 0.00 | 0.00 | 66 | 1006.4 |
| 20260505095204 | 17 | 264 | 1.6 | 3.2 | 0.00 | 0.00 | 0.00 | 67 | 1006.5 |
| 20260505095103 | 16 | 254 | 1.6 | 1.6 | 0.00 | 0.00 | 0.00 | 67 | 1006.4 |
| 20260505095024 | 16 | 247 | 0.0 | 1.6 | 0.00 | 0.00 | 0.00 | 67 | 1006.3 |
| 20260505094903 | 16 | 244 | 0.0 | 1.6 | 0.00 | 0.00 | 0.00 | 68 | 1006.4 |
| 20260505094804 | 16 | 241 | 0.0 | 1.6 | 0.00 | 0.00 | 0.00 | 68 | 1006.6 |
| 20260505094704 | 16 | 247 | 0.0 | 1.6 | 0.00 | 0.00 | 0.00 | 69 | 1006.5 |
| 20260505094604 | 16 | 0 | 0.0 | 0.0 | 0.00 | 0.00 | 0.00 | 69 | 1006.4 |
| 20260505094503 | 16 | 0 | 0.0 | 0.0 | 0.00 | 0.00 | 0.00 | 70 | 1006.3 |
| 20260505094403 | 16 | 0 | 0.0 | 0.0 | 0.00 | 0.00 | 0.00 | 69 | 1006.4 |
| 20260505094303 | 16 | 0 | 0.0 | 0.0 | 0.00 | 0.00 | 0.00 | 69 | 1006.5 |
| 20260505094204 | 16 | 0 | 0.0 | 0.0 | 0.00 | 0.00 | 0.00 | 69 | 1006.5 |
| 20260505094103 | 16 | 0 | 0.0 | 0.0 | 0.00 | 0.00 | 0.00 | 69 | 1006.4 |
| 20260505094003 | 16 | 0 | 0.0 | 0.0 | 0.00 | 0.00 | 0.00 | 69 | 1006.5 |
| 20260505093903 | 16 | 0 | 0.0 | 0.0 | 0.00 | 0.00 | 0.00 | 68 | 1006.5 |
| 20260505093825 | 16 | 0 | 0.0 | 0.0 | 0.00 | 0.00 | 0.00 | 68 | 1006.6 |
| 20260505093725 | 16 | 0 | 0.0 | 0.0 | 0.00 | 0.00 | 0.00 | 68 | 1006.7 |
| 20260505093604 | 16 | 0 | 0.0 | 0.0 | 0.00 | 0.00 | 0.00 | 67 | 1006.6 |
| 20260505093525 | 16 | 0 | 0.0 | 0.0 | 0.00 | 0.00 | 0.00 | 67 | 1006.5 |
| 20260505093403 | 17 | 0 | 0.0 | 0.0 | 0.00 | 0.00 | 0.00 | 67 | 1006.6 |
| 20260505093304 | 17 | 0 | 0.0 | 0.0 | 0.00 | 0.00 | 0.00 | 67 | 1006.7 |
| 20260505093203 | 17 | 0 | 0.0 | 0.0 | 0.00 | 0.00 | 0.00 | 67 | 1006.6 |
| 20260505093104 | 17 | 0 | 0.0 | 0.0 | 0.00 | 0.00 | 0.00 | 67 | 1006.6 |
| 20260505093024 | 17 | 0 | 0.0 | 0.0 | 0.00 | 0.00 | 0.00 | 67 | 1006.6 |
| 20260505092904 | 17 | 0 | 0.0 | 0.0 | 0.00 | 0.00 | 0.00 | 67 | 1006.8 |
| 20260505092803 | 17 | 0 | 0.0 | 0.0 | 0.00 | 0.00 | 0.00 | 67 | 1006.5 |
| 20260505092725 | 17 | 0 | 0.0 | 0.0 | 0.00 | 0.00 | 0.00 | 67 | 1006.5 |
| 20260505092604 | 17 | 0 | 0.0 | 0.0 | 0.00 | 0.00 | 0.00 | 67 | 1006.5 |
| 20260505092504 | 17 | 0 | 0.0 | 0.0 | 0.00 | 0.00 | 0.00 | 66 | 1006.6 |
| 20260505092403 | 17 | 0 | 0.0 | 0.0 | 0.00 | 0.00 | 0.00 | 66 | 1006.6 |
| 20260505092305 | 17 | 0 | 0.0 | 0.0 | 0.00 | 0.00 | 0.00 | 66 | 1006.7 |
| 20260505092204 | 17 | 0 | 0.0 | 0.0 | 0.00 | 0.00 | 0.00 | 66 | 1006.5 |
| 20260505092103 | 17 | 0 | 0.0 | 0.0 | 0.00 | 0.00 | 0.00 | 66 | 1006.6 |
| 20260505092004 | 17 | 0 | 0.0 | 0.0 | 0.00 | 0.00 | 0.00 | 66 | 1006.6 |
| 20260505091903 | 17 | 0 | 0.0 | 0.0 | 0.00 | 0.00 | 0.00 | 65 | 1006.6 |
| 20260505091804 | 17 | 0 | 0.0 | 0.0 | 0.00 | 0.00 | 0.00 | 65 | 1006.7 |
| 20260505091703 | 17 | 0 | 0.0 | 0.0 | 0.00 | 0.00 | 0.00 | 65 | 1006.8 |
| 20260505091604 | 17 | 0 | 0.0 | 0.0 | 0.00 | 0.00 | 0.00 | 65 | 1006.8 |
| 20260505091503 | 17 | 0 | 0.0 | 0.0 | 0.00 | 0.00 | 0.00 | 65 | 1006.5 |
| 20260505091403 | 17 | 0 | 0.0 | 0.0 | 0.00 | 0.00 | 0.00 | 64 | 1006.6 |
| 20260505091304 | 17 | 0 | 0.0 | 0.0 | 0.00 | 0.00 | 0.00 | 64 | 1006.5 |
| 20260505091203 | 17 | 0 | 0.0 | 0.0 | 0.00 | 0.00 | 0.00 | 64 | 1006.5 |
| 20260505091104 | 17 | 245 | 0.0 | 1.6 | 0.00 | 0.00 | 0.00 | 63 | 1006.5 |
| 20260505091004 | 18 | 244 | 0.0 | 1.6 | 0.00 | 0.00 | 0.00 | 63 | 1006.4 |
| 20260505090904 | 18 | 250 | 1.6 | 3.2 | 0.00 | 0.00 | 0.00 | 63 | 1006.4 |
| 20260505090825 | 18 | 259 | 1.6 | 3.2 | 0.00 | 0.00 | 0.00 | 63 | 1006.5 |
| 20260505090704 | 18 | 279 | 3.2 | 3.2 | 0.00 | 0.00 | 0.00 | 63 | 1006.7 |
| 20260505090604 | 18 | 270 | 1.6 | 3.2 | 0.00 | 0.00 | 0.00 | 63 | 1006.4 |
| 20260505090503 | 18 | 275 | 1.6 | 1.6 | 0.00 | 0.00 | 0.00 | 63 | 1006.4 |
| 20260505090424 | 18 | 272 | 1.6 | 1.6 | 0.00 | 0.00 | 0.00 | 63 | 1006.4 |
| 20260505090325 | 18 | 261 | 1.6 | 3.2 | 0.00 | 0.00 | 0.00 | 63 | 1006.5 |
| 20260505090204 | 18 | 264 | 1.6 | 4.8 | 0.00 | 0.00 | 0.00 | 63 | 1006.6 |
| 20260505090004 | 18 | 284 | 1.6 | 4.8 | 0.00 | 0.00 | 0.00 | 62 | 1006.5 |
| 20260505085904 | 18 | 269 | 1.6 | 3.2 | 0.00 | 0.00 | 0.00 | 62 | 1006.5 |
| 20260505085803 | 18 | 264 | 1.6 | 1.6 | 0.00 | 0.00 | 0.00 | 62 | 1006.5 |
| 20260505085704 | 18 | 256 | 1.6 | 1.6 | 0.00 | 0.00 | 0.00 | 62 | 1006.4 |
| 20260505085604 | 18 | 256 | 1.6 | 1.6 | 0.00 | 0.00 | 0.00 | 62 | 1006.4 |
| 20260505085504 | 18 | 255 | 1.6 | 1.6 | 0.00 | 0.00 | 0.00 | 62 | 1006.2 |
| 20260505085404 | 18 | 259 | 1.6 | 1.6 | 0.00 | 0.00 | 0.00 | 62 | 1006.2 |
| 20260505085304 | 18 | 246 | 0.0 | 3.2 | 0.00 | 0.00 | 0.00 | 62 | 1006.4 |
| 20260505085203 | 18 | 254 | 1.6 | 3.2 | 0.00 | 0.00 | 0.00 | 62 | 1006.4 |
| 20260505085124 | 18 | 264 | 1.6 | 1.6 | 0.00 | 0.00 | 0.00 | 62 | 1006.3 |
| 20260505085004 | 18 | 249 | 0.0 | 1.6 | 0.00 | 0.00 | 0.00 | 62 | 1006.5 |
| 20260505084904 | 18 | 244 | 0.0 | 1.6 | 0.00 | 0.00 | 0.00 | 62 | 1006.3 |
| 20260505084804 | 18 | 251 | 0.0 | 1.6 | 0.00 | 0.00 | 0.00 | 62 | 1006.5 |
| 20260505084704 | 18 | 248 | 0.0 | 1.6 | 0.00 | 0.00 | 0.00 | 62 | 1006.6 |
| 20260505084625 | 18 | 248 | 0.0 | 1.6 | 0.00 | 0.00 | 0.00 | 62 | 1006.5 |
| 20260505084504 | 18 | 249 | 0.0 | 1.6 | 0.00 | 0.00 | 0.00 | 62 | 1006.5 |
| 20260505084403 | 18 | 247 | 0.0 | 1.6 | 0.00 | 0.00 | 0.00 | 62 | 1006.6 |
| 20260505084324 | 18 | 252 | 1.6 | 1.6 | 0.00 | 0.00 | 0.00 | 62 | 1006.6 |
| 20260505084224 | 18 | 256 | 1.6 | 1.6 | 0.00 | 0.00 | 0.00 | 62 | 1006.5 |
| 20260505084103 | 18 | 254 | 1.6 | 1.6 | 0.00 | 0.00 | 0.00 | 62 | 1006.4 |
| 20260505084003 | 18 | 255 | 1.6 | 1.6 | 0.00 | 0.00 | 0.00 | 62 | 1006.3 |
| 20260505083903 | 18 | 257 | 1.6 | 1.6 | 0.00 | 0.00 | 0.00 | 62 | 1006.5 |
| 20260505083803 | 18 | 246 | 0.0 | 1.6 | 0.00 | 0.00 | 0.00 | 62 | 1006.4 |
| 20260505083704 | 18 | 0 | 0.0 | 0.0 | 0.00 | 0.00 | 0.00 | 62 | 1006.4 |
| 20260505083604 | 18 | 243 | 0.0 | 1.6 | 0.00 | 0.00 | 0.00 | 62 | 1006.3 |
| 20260505083504 | 18 | 247 | 0.0 | 1.6 | 0.00 | 0.00 | 0.00 | 62 | 1006.4 |
| 20260505083403 | 17 | 245 | 0.0 | 1.6 | 0.00 | 0.00 | 0.00 | 63 | 1006.2 |
| 20260505083303 | 17 | 250 | 1.6 | 1.6 | 0.00 | 0.00 | 0.00 | 63 | 1006.4 |
| 20260505083203 | 17 | 247 | 0.0 | 1.6 | 0.00 | 0.00 | 0.00 | 63 | 1006.3 |
| 20260505083103 | 17 | 252 | 1.6 | 1.6 | 0.00 | 0.00 | 0.00 | 63 | 1006.3 |
| 20260505083004 | 17 | 0 | 0.0 | 0.0 | 0.00 | 0.00 | 0.00 | 63 | 1006.4 |
| 20260505082904 | 17 | 0 | 0.0 | 0.0 | 0.00 | 0.00 | 0.00 | 63 | 1006.3 |
| 20260505082825 | 17 | 0 | 0.0 | 0.0 | 0.00 | 0.00 | 0.00 | 63 | 1006.3 |
| 20260505082704 | 17 | 0 | 0.0 | 0.0 | 0.00 | 0.00 | 0.00 | 63 | 1006.3 |
| 20260505082604 | 17 | 0 | 0.0 | 0.0 | 0.00 | 0.00 | 0.00 | 63 | 1006.2 |
| 20260505082503 | 18 | 0 | 0.0 | 0.0 | 0.00 | 0.00 | 0.00 | 63 | 1006.2 |
| 20260505082403 | 18 | 0 | 0.0 | 0.0 | 0.00 | 0.00 | 0.00 | 63 | 1006.2 |
| 20260505082324 | 18 | 0 | 0.0 | 0.0 | 0.00 | 0.00 | 0.00 | 63 | 1006.3 |
| 20260505082204 | 18 | 0 | 0.0 | 0.0 | 0.00 | 0.00 | 0.00 | 62 | 1006.2 |
| 20260505082104 | 18 | 246 | 0.0 | 1.6 | 0.00 | 0.00 | 0.00 | 62 | 1006.4 |
| 20260505082003 | 18 | 246 | 0.0 | 1.6 | 0.00 | 0.00 | 0.00 | 62 | 1006.2 |
| 20260505081903 | 18 | 247 | 0.0 | 3.2 | 0.00 | 0.00 | 0.00 | 62 | 1006.2 |
| 20260505081804 | 18 | 255 | 1.6 | 3.2 | 0.00 | 0.00 | 0.00 | 62 | 1006.3 |
| 20260505081704 | 18 | 259 | 1.6 | 3.2 | 0.00 | 0.00 | 0.00 | 61 | 1006.1 |
| 20260505081604 | 18 | 248 | 0.0 | 1.6 | 0.00 | 0.00 | 0.00 | 61 | 1006.3 |
| 20260505081504 | 18 | 245 | 0.0 | 3.2 | 0.00 | 0.00 | 0.00 | 61 | 1006.3 |
| 20260505081425 | 18 | 243 | 0.0 | 4.8 | 0.00 | 0.00 | 0.00 | 61 | 1006.3 |
| 20260505081304 | 18 | 268 | 1.6 | 4.8 | 0.00 | 0.00 | 0.00 | 61 | 1006.3 |
| 20260505081204 | 18 | 311 | 3.2 | 4.8 | 0.00 | 0.00 | 0.00 | 61 | 1006.3 |
| 20260505081125 | 18 | 286 | 3.2 | 4.8 | 0.00 | 0.00 | 0.00 | 61 | 1006.3 |
| 20260505081003 | 18 | 246 | 1.6 | 1.6 | 0.00 | 0.00 | 0.00 | 61 | 1006.3 |
| 20260505080904 | 18 | 242 | 0.0 | 1.6 | 0.00 | 0.00 | 0.00 | 61 | 1006.4 |
| 20260505080804 | 18 | 252 | 1.6 | 1.6 | 0.00 | 0.00 | 0.00 | 61 | 1006.4 |
| 20260505080703 | 18 | 251 | 1.6 | 1.6 | 0.00 | 0.00 | 0.00 | 61 | 1006.2 |
| 20260505080604 | 18 | 253 | 1.6 | 1.6 | 0.00 | 0.00 | 0.00 | 62 | 1006.0 |
| 20260505080504 | 18 | 251 | 0.0 | 1.6 | 0.00 | 0.00 | 0.00 | 62 | 1006.2 |
| 20260505080425 | 18 | 253 | 1.6 | 1.6 | 0.00 | 0.00 | 0.00 | 62 | 1005.9 |
| 20260505080303 | 18 | 0 | 0.0 | 0.0 | 0.00 | 0.00 | 0.00 | 62 | 1006.0 |
| 20260505080203 | 18 | 247 | 0.0 | 1.6 | 0.00 | 0.00 | 0.00 | 62 | 1006.1 |
| 20260505080103 | 18 | 247 | 0.0 | 1.6 | 0.00 | 0.00 | 0.00 | 62 | 1006.1 |
| 20260505080004 | 18 | 252 | 0.0 | 1.6 | 0.00 | 0.00 | 0.00 | 62 | 1006.0 |
| 20260505075904 | 18 | 254 | 0.0 | 1.6 | 0.00 | 0.00 | 0.00 | 62 | 1005.9 |
| 20260505075803 | 18 | 250 | 1.6 | 1.6 | 0.00 | 0.00 | 0.00 | 62 | 1006.1 |
| 20260505075704 | 18 | 253 | 1.6 | 1.6 | 0.00 | 0.00 | 0.00 | 62 | 1006.0 |
| 20260505075603 | 18 | 252 | 0.0 | 1.6 | 0.00 | 0.00 | 0.00 | 62 | 1006.1 |
| 20260505075503 | 18 | 253 | 1.6 | 1.6 | 0.00 | 0.00 | 0.00 | 62 | 1006.1 |
| 20260505075403 | 18 | 257 | 0.0 | 1.6 | 0.00 | 0.00 | 0.00 | 62 | 1006.1 |
| 20260505075304 | 18 | 255 | 0.0 | 1.6 | 0.00 | 0.00 | 0.00 | 62 | 1006.0 |
| 20260505075203 | 18 | 242 | 0.0 | 3.2 | 0.00 | 0.00 | 0.00 | 62 | 1006.1 |
| 20260505075104 | 18 | 249 | 1.6 | 4.8 | 0.00 | 0.00 | 0.00 | 61 | 1006.0 |
| 20260505075004 | 18 | 288 | 3.2 | 4.8 | 0.00 | 0.00 | 0.00 | 61 | 1005.9 |
| 20260505074903 | 18 | 258 | 1.6 | 1.6 | 0.00 | 0.00 | 0.00 | 61 | 1005.8 |
| 20260505074824 | 18 | 253 | 1.6 | 1.6 | 0.00 | 0.00 | 0.00 | 61 | 1005.9 |
| 20260505074704 | 18 | 265 | 1.6 | 6.4 | 0.00 | 0.00 | 0.00 | 60 | 1005.8 |
| 20260505074603 | 18 | 263 | 1.6 | 6.4 | 0.00 | 0.00 | 0.00 | 61 | 1005.9 |
| 20260505074503 | 18 | 344 | 4.8 | 6.4 | 0.00 | 0.00 | 0.00 | 60 | 1005.9 |
| 20260505074403 | 18 | 283 | 3.2 | 3.2 | 0.00 | 0.00 | 0.00 | 60 | 1005.9 |
| 20260505074303 | 18 | 296 | 3.2 | 4.8 | 0.00 | 0.00 | 0.00 | 60 | 1005.9 |
| 20260505074204 | 18 | 320 | 3.2 | 4.8 | 0.00 | 0.00 | 0.00 | 60 | 1006.0 |
| 20260505074103 | 18 | 294 | 3.2 | 3.2 | 0.00 | 0.00 | 0.00 | 60 | 1006.1 |
| 20260505074003 | 18 | 267 | 1.6 | 3.2 | 0.00 | 0.00 | 0.00 | 60 | 1006.1 |
| 20260505073904 | 18 | 264 | 1.6 | 3.2 | 0.00 | 0.00 | 0.00 | 60 | 1005.9 |
| 20260505073804 | 18 | 276 | 3.2 | 3.2 | 0.00 | 0.00 | 0.00 | 60 | 1005.8 |
| 20260505073703 | 18 | 270 | 1.6 | 3.2 | 0.00 | 0.00 | 0.00 | 60 | 1005.8 |
| 20260505073603 | 18 | 260 | 1.6 | 3.2 | 0.00 | 0.00 | 0.00 | 60 | 1005.8 |
| 20260505073503 | 18 | 259 | 1.6 | 1.6 | 0.00 | 0.00 | 0.00 | 60 | 1005.8 |
| 20260505073403 | 18 | 257 | 1.6 | 1.6 | 0.00 | 0.00 | 0.00 | 60 | 1005.9 |
| 20260505073304 | 18 | 250 | 0.0 | 1.6 | 0.00 | 0.00 | 0.00 | 60 | 1005.8 |
| 20260505073203 | 18 | 242 | 0.0 | 1.6 | 0.00 | 0.00 | 0.00 | 60 | 1005.6 |
| 20260505073104 | 18 | 255 | 1.6 | 1.6 | 0.00 | 0.00 | 0.00 | 60 | 1005.8 |
| 20260505073003 | 18 | 259 | 1.6 | 3.2 | 0.00 | 0.00 | 0.00 | 60 | 1005.8 |
| 20260505072903 | 18 | 257 | 1.6 | 3.2 | 0.00 | 0.00 | 0.00 | 60 | 1005.8 |
| 20260505072804 | 18 | 270 | 1.6 | 3.2 | 0.00 | 0.00 | 0.00 | 60 | 1005.9 |
| 20260505072724 | 18 | 273 | 1.6 | 3.2 | 0.00 | 0.00 | 0.00 | 61 | 1005.8 |
| 20260505072603 | 18 | 276 | 1.6 | 3.2 | 0.00 | 0.00 | 0.00 | 61 | 1005.6 |
| 20260505072525 | 18 | 267 | 1.6 | 3.2 | 0.00 | 0.00 | 0.00 | 61 | 1005.6 |
| 20260505072403 | 18 | 266 | 1.6 | 3.2 | 0.00 | 0.00 | 0.00 | 61 | 1005.5 |
| 20260505072305 | 18 | 253 | 1.6 | 3.2 | 0.00 | 0.00 | 0.00 | 61 | 1005.5 |
| 20260505072203 | 18 | 245 | 1.6 | 3.2 | 0.00 | 0.00 | 0.00 | 61 | 1005.6 |
| 20260505072103 | 18 | 247 | 1.6 | 1.6 | 0.00 | 0.00 | 0.00 | 62 | 1005.5 |
| 20260505072003 | 18 | 239 | 0.0 | 1.6 | 0.00 | 0.00 | 0.00 | 62 | 1005.5 |
| 20260505071925 | 18 | 0 | 0.0 | 0.0 | 0.00 | 0.00 | 0.00 | 62 | 1005.8 |
| 20260505071803 | 18 | 238 | 0.0 | 1.6 | 0.00 | 0.00 | 0.00 | 62 | 1005.3 |
| 20260505071724 | 18 | 237 | 0.0 | 1.6 | 0.00 | 0.00 | 0.00 | 61 | 1005.5 |
| 20260505071603 | 18 | 234 | 0.0 | 1.6 | 0.00 | 0.00 | 0.00 | 61 | 1005.5 |
| 20260505071503 | 18 | 237 | 0.0 | 1.6 | 0.00 | 0.00 | 0.00 | 61 | 1005.3 |
| 20260505071424 | 18 | 237 | 0.0 | 1.6 | 0.00 | 0.00 | 0.00 | 61 | 1005.4 |
| 20260505071303 | 18 | 233 | 0.0 | 1.6 | 0.00 | 0.00 | 0.00 | 61 | 1005.4 |
| 20260505071204 | 18 | 233 | 0.0 | 1.6 | 0.00 | 0.00 | 0.00 | 61 | 1005.5 |
| 20260505071104 | 18 | 231 | 0.0 | 1.6 | 0.00 | 0.00 | 0.00 | 60 | 1005.4 |
| 20260505071024 | 18 | 233 | 0.0 | 1.6 | 0.00 | 0.00 | 0.00 | 60 | 1005.5 |
| 20260505070903 | 18 | 226 | 0.0 | 1.6 | 0.00 | 0.00 | 0.00 | 60 | 1005.6 |
| 20260505070804 | 18 | 232 | 0.0 | 3.2 | 0.00 | 0.00 | 0.00 | 61 | 1005.5 |
| 20260505070704 | 18 | 226 | 1.6 | 3.2 | 0.00 | 0.00 | 0.00 | 60 | 1005.5 |
| 20260505070603 | 18 | 210 | 1.6 | 3.2 | 0.00 | 0.00 | 0.00 | 60 | 1005.4 |
| 20260505070503 | 18 | 214 | 1.6 | 3.2 | 0.00 | 0.00 | 0.00 | 60 | 1005.6 |
| 20260505070425 | 18 | 213 | 1.6 | 3.2 | 0.00 | 0.00 | 0.00 | 60 | 1005.5 |
| 20260505070303 | 18 | 214 | 1.6 | 3.2 | 0.00 | 0.00 | 0.00 | 59 | 1005.5 |
| 20260505070203 | 19 | 215 | 1.6 | 3.2 | 0.00 | 0.00 | 0.00 | 59 | 1005.5 |
| 20260505070103 | 19 | 213 | 1.6 | 3.2 | 0.00 | 0.00 | 0.00 | 59 | 1005.5 |
| 20260505070004 | 19 | 224 | 0.0 | 1.6 | 0.00 | 0.00 | 0.00 | 59 | 1005.5 |
| 20260505065903 | 19 | 235 | 0.0 | 1.6 | 0.00 | 0.00 | 0.00 | 59 | 1005.3 |
| 20260505065803 | 19 | 229 | 0.0 | 1.6 | 0.00 | 0.00 | 0.00 | 59 | 1005.4 |
| 20260505065704 | 19 | 227 | 0.0 | 1.6 | 0.00 | 0.00 | 0.00 | 58 | 1005.4 |
| 20260505065603 | 19 | 213 | 0.0 | 1.6 | 0.00 | 0.00 | 0.00 | 58 | 1005.4 |
| 20260505065503 | 19 | 235 | 0.0 | 1.6 | 0.00 | 0.00 | 0.00 | 58 | 1005.4 |
| 20260505065425 | 19 | 234 | 0.0 | 3.2 | 0.00 | 0.00 | 0.00 | 57 | 1005.5 |
| 20260505065304 | 20 | 207 | 1.6 | 3.2 | 0.00 | 0.00 | 0.00 | 57 | 1005.3 |
| 20260505065204 | 20 | 181 | 1.6 | 4.8 | 0.00 | 0.00 | 0.00 | 57 | 1005.4 |
| 20260505065104 | 20 | 116 | 3.2 | 4.8 | 0.00 | 0.00 | 0.00 | 57 | 1005.5 |
| 20260505065004 | 20 | 101 | 3.2 | 4.8 | 0.00 | 0.00 | 0.00 | 57 | 1005.4 |
| 20260505064924 | 20 | 143 | 3.2 | 4.8 | 0.00 | 0.00 | 0.00 | 56 | 1005.4 |
| 20260505064804 | 20 | 167 | 1.6 | 6.4 | 0.00 | 0.00 | 0.00 | 56 | 1005.2 |
| 20260505064703 | 20 | 157 | 3.2 | 6.4 | 0.00 | 0.00 | 0.00 | 56 | 1005.2 |
| 20260505064603 | 20 | 84 | 4.8 | 6.4 | 0.00 | 0.00 | 0.00 | 56 | 1005.2 |
| 20260505064503 | 20 | 129 | 3.2 | 4.8 | 0.00 | 0.00 | 0.00 | 55 | 1005.4 |
| 20260505064425 | 20 | 214 | 0.0 | 3.2 | 0.00 | 0.00 | 0.00 | 55 | 1005.1 |
| 20260505064304 | 20 | 193 | 1.6 | 3.2 | 0.00 | 0.00 | 0.00 | 55 | 1005.4 |
| 20260505064204 | 20 | 101 | 1.6 | 3.2 | 0.00 | 0.00 | 0.00 | 55 | 1005.2 |
| 20260505064103 | 20 | 229 | 0.0 | 1.6 | 0.00 | 0.00 | 0.00 | 55 | 1005.1 |
| 20260505064003 | 20 | 243 | 0.0 | 1.6 | 0.00 | 0.00 | 0.00 | 54 | 1005.2 |
| 20260505063925 | 20 | 260 | 1.6 | 1.6 | 0.00 | 0.00 | 0.00 | 54 | 1005.2 |
| 20260505063803 | 20 | 246 | 0.0 | 1.6 | 0.00 | 0.00 | 0.00 | 54 | 1005.0 |
| 20260505063704 | 20 | 259 | 1.6 | 3.2 | 0.00 | 0.00 | 0.00 | 54 | 1005.3 |
| 20260505063604 | 20 | 278 | 1.6 | 3.2 | 0.00 | 0.00 | 0.00 | 54 | 1005.0 |
| 20260505063525 | 20 | 272 | 1.6 | 3.2 | 0.00 | 0.00 | 0.00 | 54 | 1005.0 |
| 20260505063403 | 20 | 303 | 3.2 | 4.8 | 0.00 | 0.00 | 0.00 | 54 | 1005.1 |
| 20260505063304 | 20 | 291 | 3.2 | 4.8 | 0.00 | 0.00 | 0.00 | 53 | 1005.1 |
| 20260505063203 | 20 | 260 | 0.0 | 3.2 | 0.00 | 0.00 | 0.00 | 53 | 1005.1 |
| 20260505063103 | 20 | 276 | 3.2 | 4.8 | 0.00 | 0.00 | 0.00 | 53 | 1005.0 |
| 20260505063004 | 20 | 279 | 3.2 | 4.8 | 0.00 | 0.00 | 0.00 | 53 | 1005.0 |
| 20260505062903 | 20 | 254 | 1.6 | 4.8 | 0.00 | 0.00 | 0.00 | 52 | 1005.0 |
| 20260505062804 | 20 | 311 | 3.2 | 4.8 | 0.00 | 0.00 | 0.00 | 52 | 1005.0 |
| 20260505062725 | 20 | 308 | 3.2 | 4.8 | 0.00 | 0.00 | 0.00 | 52 | 1005.0 |
| 20260505062603 | 20 | 311 | 3.2 | 4.8 | 0.00 | 0.00 | 0.00 | 51 | 1005.1 |
| 20260505062503 | 20 | 313 | 3.2 | 3.2 | 0.00 | 0.00 | 0.00 | 51 | 1005.1 |
| 20260505062403 | 20 | 309 | 1.6 | 3.2 | 0.00 | 0.00 | 0.00 | 51 | 1005.1 |
| 20260505062304 | 20 | 250 | 0.0 | 3.2 | 0.00 | 0.00 | 0.00 | 52 | 1005.2 |
| 20260505062204 | 20 | 270 | 1.6 | 3.2 | 0.00 | 0.00 | 0.00 | 52 | 1005.2 |
| 20260505062104 | 20 | 302 | 1.6 | 3.2 | 0.00 | 0.00 | 0.00 | 53 | 1005.1 |
| 20260505062004 | 20 | 271 | 1.6 | 3.2 | 0.00 | 0.00 | 0.00 | 54 | 1005.1 |
| 20260505061904 | 20 | 277 | 1.6 | 3.2 | 0.00 | 0.00 | 0.00 | 55 | 1005.0 |
| 20260505061803 | 20 | 258 | 0.0 | 1.6 | 0.00 | 0.00 | 0.00 | 55 | 1004.9 |
| 20260505061725 | 20 | 240 | 0.0 | 1.6 | 0.00 | 0.00 | 0.00 | 54 | 1005.2 |
| 20260505061603 | 20 | 242 | 1.6 | 1.6 | 0.00 | 0.00 | 0.00 | 54 | 1005.0 |
| 20260505061504 | 20 | 0 | 0.0 | 0.0 | 0.00 | 0.00 | 0.00 | 54 | 1005.1 |
| 20260505061403 | 20 | 0 | 0.0 | 0.0 | 0.00 | 0.00 | 0.00 | 54 | 1004.9 |
| 20260505061303 | 20 | 239 | 0.0 | 1.6 | 0.00 | 0.00 | 0.00 | 54 | 1005.1 |
| 20260505061203 | 20 | 238 | 0.0 | 1.6 | 0.00 | 0.00 | 0.00 | 54 | 1005.0 |
| 20260505061103 | 20 | 233 | 1.6 | 1.6 | 0.00 | 0.00 | 0.00 | 54 | 1005.0 |
| 20260505061004 | 20 | 235 | 0.0 | 1.6 | 0.00 | 0.00 | 0.00 | 54 | 1004.9 |
| 20260505060904 | 20 | 236 | 0.0 | 1.6 | 0.00 | 0.00 | 0.00 | 54 | 1005.1 |
| 20260505060824 | 20 | 0 | 0.0 | 0.0 | 0.00 | 0.00 | 0.00 | 54 | 1005.0 |
| 20260505060704 | 20 | 237 | 0.0 | 1.6 | 0.00 | 0.00 | 0.00 | 54 | 1004.8 |
| 20260505060603 | 20 | 236 | 0.0 | 1.6 | 0.00 | 0.00 | 0.00 | 54 | 1004.9 |
| 20260505060503 | 20 | 235 | 0.0 | 1.6 | 0.00 | 0.00 | 0.00 | 54 | 1005.0 |
| 20260505060425 | 20 | 233 | 1.6 | 1.6 | 0.00 | 0.00 | 0.00 | 54 | 1005.0 |
| 20260505060325 | 20 | 237 | 0.0 | 1.6 | 0.00 | 0.00 | 0.00 | 54 | 1005.0 |
| 20260505060204 | 20 | 237 | 1.6 | 1.6 | 0.00 | 0.00 | 0.00 | 54 | 1004.9 |
| 20260505060103 | 20 | 236 | 0.0 | 1.6 | 0.00 | 0.00 | 0.00 | 54 | 1004.9 |
| 20260505060003 | 20 | 0 | 0.0 | 0.0 | 0.00 | 0.00 | 0.00 | 54 | 1005.0 |
| 20260505055903 | 20 | 0 | 0.0 | 0.0 | 0.00 | 0.00 | 0.00 | 54 | 1004.8 |
| 20260505055803 | 20 | 0 | 0.0 | 0.0 | 0.00 | 0.00 | 0.00 | 54 | 1004.9 |
| 20260505055703 | 20 | 236 | 0.0 | 1.6 | 0.00 | 0.00 | 0.00 | 53 | 1005.1 |
| 20260505055603 | 20 | 235 | 0.0 | 1.6 | 0.00 | 0.00 | 0.00 | 53 | 1005.1 |
| 20260505055504 | 20 | 231 | 0.0 | 1.6 | 0.00 | 0.00 | 0.00 | 53 | 1005.1 |
| 20260505055403 | 21 | 0 | 0.0 | 0.0 | 0.00 | 0.00 | 0.00 | 53 | 1005.0 |
| 20260505055304 | 21 | 0 | 0.0 | 0.0 | 0.00 | 0.00 | 0.00 | 53 | 1005.1 |
| 20260505055203 | 21 | 236 | 0.0 | 1.6 | 0.00 | 0.00 | 0.00 | 52 | 1005.0 |
| 20260505055103 | 21 | 233 | 0.0 | 1.6 | 0.00 | 0.00 | 0.00 | 52 | 1004.9 |
| 20260505055003 | 21 | 230 | 0.0 | 1.6 | 0.00 | 0.00 | 0.00 | 52 | 1005.0 |
| 20260505054924 | 21 | 0 | 0.0 | 0.0 | 0.00 | 0.00 | 0.00 | 52 | 1004.9 |
| 20260505054803 | 21 | 231 | 0.0 | 1.6 | 0.00 | 0.00 | 0.00 | 51 | 1005.0 |
| 20260505054704 | 21 | 226 | 0.0 | 3.2 | 0.00 | 0.00 | 0.00 | 52 | 1005.1 |
| 20260505054604 | 21 | 213 | 1.6 | 4.8 | 0.00 | 0.00 | 0.00 | 51 | 1005.0 |
| 20260505054503 | 21 | 116 | 3.2 | 4.8 | 0.00 | 0.00 | 0.00 | 51 | 1004.9 |
| 20260505054403 | 21 | 202 | 0.0 | 3.2 | 0.00 | 0.00 | 0.00 | 51 | 1004.8 |
| 20260505054303 | 21 | 158 | 1.6 | 4.8 | 0.00 | 0.00 | 0.00 | 50 | 1004.8 |
| 20260505054203 | 21 | 156 | 3.2 | 4.8 | 0.00 | 0.00 | 0.00 | 50 | 1004.8 |
| 20260505054125 | 21 | 158 | 1.6 | 3.2 | 0.00 | 0.00 | 0.00 | 50 | 1004.8 |
| 20260505054003 | 21 | 151 | 1.6 | 11.3 | 0.00 | 0.00 | 0.00 | 48 | 1004.8 |
| 20260505053903 | 22 | 93 | 4.8 | 11.3 | 0.00 | 0.00 | 0.00 | 48 | 1004.7 |
| 20260505053803 | 22 | 71 | 6.4 | 11.3 | 0.00 | 0.00 | 0.00 | 47 | 1004.8 |
| 20260505053703 | 22 | 70 | 4.8 | 11.3 | 0.00 | 0.00 | 0.00 | 45 | 1004.8 |
| 20260505053604 | 22 | 82 | 6.4 | 11.3 | 0.00 | 0.00 | 0.00 | 45 | 1004.8 |
| 20260505053503 | 22 | 71 | 6.4 | 11.3 | 0.00 | 0.00 | 0.00 | 43 | 1004.8 |
| 20260505053403 | 22 | 62 | 3.2 | 4.8 | 0.00 | 0.00 | 0.00 | 43 | 1004.8 |
| 20260505053303 | 22 | 239 | 0.0 | 1.6 | 0.00 | 0.00 | 0.00 | 41 | 1004.8 |
| 20260505053203 | 22 | 248 | 0.0 | 1.6 | 0.00 | 0.00 | 0.00 | 41 | 1004.6 |
| 20260505053103 | 22 | 238 | 0.0 | 1.6 | 0.00 | 0.00 | 0.00 | 41 | 1004.6 |
| 20260505053004 | 22 | 253 | 0.0 | 1.6 | 0.00 | 0.00 | 0.00 | 41 | 1004.3 |
| 20260505052903 | 22 | 192 | 0.0 | 1.6 | 0.00 | 0.00 | 0.00 | 41 | 1004.6 |
| 20260505052804 | 22 | 232 | 0.0 | 1.6 | 0.00 | 0.00 | 0.00 | 40 | 1004.4 |
| 20260505052724 | 22 | 241 | 0.0 | 1.6 | 0.00 | 0.00 | 0.00 | 40 | 1004.6 |
| 20260505052603 | 22 | 273 | 0.0 | 1.6 | 0.00 | 0.00 | 0.00 | 40 | 1004.4 |
| 20260505052503 | 22 | 0 | 0.0 | 0.0 | 0.00 | 0.00 | 0.00 | 40 | 1004.6 |
| 20260505052403 | 22 | 0 | 0.0 | 0.0 | 0.00 | 0.00 | 0.00 | 39 | 1004.6 |
| 20260505052324 | 22 | 0 | 0.0 | 0.0 | 0.00 | 0.00 | 0.00 | 39 | 1004.3 |
| 20260505052204 | 22 | 0 | 0.0 | 0.0 | 0.00 | 0.00 | 0.00 | 39 | 1004.4 |
| 20260505052103 | 22 | 0 | 0.0 | 0.0 | 0.00 | 0.00 | 0.00 | 40 | 1004.6 |
| 20260505052003 | 22 | 0 | 0.0 | 0.0 | 0.00 | 0.00 | 0.00 | 40 | 1004.4 |
| 20260505051903 | 22 | 0 | 0.0 | 0.0 | 0.00 | 0.00 | 0.00 | 40 | 1004.4 |
| 20260505051803 | 22 | 0 | 0.0 | 0.0 | 0.00 | 0.00 | 0.00 | 40 | 1004.4 |
| 20260505051703 | 22 | 0 | 0.0 | 0.0 | 0.00 | 0.00 | 0.00 | 39 | 1004.3 |
| 20260505051603 | 22 | 0 | 0.0 | 0.0 | 0.00 | 0.00 | 0.00 | 40 | 1004.6 |
| 20260505051503 | 22 | 0 | 0.0 | 0.0 | 0.00 | 0.00 | 0.00 | 39 | 1004.6 |
| 20260505051403 | 22 | 0 | 0.0 | 0.0 | 0.00 | 0.00 | 0.00 | 39 | 1004.4 |
| 20260505051324 | 22 | 0 | 0.0 | 0.0 | 0.00 | 0.00 | 0.00 | 39 | 1004.4 |
| 20260505051203 | 22 | 0 | 0.0 | 0.0 | 0.00 | 0.00 | 0.00 | 38 | 1004.4 |
| 20260505051103 | 23 | 0 | 0.0 | 0.0 | 0.00 | 0.00 | 0.00 | 39 | 1004.6 |
| 20260505051004 | 23 | 0 | 0.0 | 0.0 | 0.00 | 0.00 | 0.00 | 40 | 1004.3 |
| 20260505050924 | 23 | 0 | 0.0 | 0.0 | 0.00 | 0.00 | 0.00 | 40 | 1004.6 |
| 20260505050803 | 23 | 0 | 0.0 | 0.0 | 0.00 | 0.00 | 0.00 | 39 | 1004.7 |
| 20260505050703 | 23 | 0 | 0.0 | 0.0 | 0.00 | 0.00 | 0.00 | 40 | 1004.4 |
| 20260505050603 | 23 | 0 | 0.0 | 0.0 | 0.00 | 0.00 | 0.00 | 38 | 1004.4 |
| 20260505050503 | 23 | 0 | 0.0 | 0.0 | 0.00 | 0.00 | 0.00 | 38 | 1004.4 |
| 20260505050403 | 23 | 0 | 0.0 | 0.0 | 0.00 | 0.00 | 0.00 | 37 | 1004.6 |
| 20260505050304 | 23 | 0 | 0.0 | 0.0 | 0.00 | 0.00 | 0.00 | 37 | 1004.4 |
| 20260505050204 | 23 | 241 | 0.0 | 1.6 | 0.00 | 0.00 | 0.00 | 37 | 1004.3 |
| 20260505050104 | 23 | 245 | 0.0 | 1.6 | 0.00 | 0.00 | 0.00 | 37 | 1004.3 |
| 20260505041703 | 25 | 220 | 1.6 | 3.2 | 0.00 | 0.00 | 0.00 | 34 | 1004.6 |
| 20260505041603 | 25 | 198 | 1.6 | 3.2 | 0.00 | 0.00 | 0.00 | 35 | 1004.6 |
| 20260505041524 | 25 | 196 | 1.6 | 3.2 | 0.00 | 0.00 | 0.00 | 34 | 1004.6 |
| 20260505041424 | 25 | 208 | 1.6 | 3.2 | 0.00 | 0.00 | 0.00 | 34 | 1004.7 |
| 20260505041303 | 25 | 210 | 1.6 | 1.6 | 0.00 | 0.00 | 0.00 | 32 | 1004.6 |
| 20260505041203 | 25 | 0 | 0.0 | 0.0 | 0.00 | 0.00 | 0.00 | 31 | 1004.3 |
| 20260505041103 | 25 | 0 | 0.0 | 0.0 | 0.00 | 0.00 | 0.00 | 32 | 1004.3 |
| 20260505041004 | 25 | 242 | 0.0 | 1.6 | 0.00 | 0.00 | 0.00 | 33 | 1004.4 |
| 20260505040903 | 25 | 240 | 0.0 | 1.6 | 0.00 | 0.00 | 0.00 | 33 | 1004.4 |
| 20260505040803 | 25 | 233 | 1.6 | 1.6 | 0.00 | 0.00 | 0.00 | 33 | 1004.4 |
| 20260505040703 | 25 | 240 | 1.6 | 1.6 | 0.00 | 0.00 | 0.00 | 33 | 1004.4 |
| 20260505040604 | 25 | 239 | 0.0 | 1.6 | 0.00 | 0.00 | 0.00 | 33 | 1004.3 |
| 20260505040503 | 25 | 240 | 0.0 | 1.6 | 0.00 | 0.00 | 0.00 | 33 | 1004.2 |
| 20260505040403 | 25 | 248 | 0.0 | 1.6 | 0.00 | 0.00 | 0.00 | 32 | 1004.3 |
| 20260505040303 | 25 | 239 | 0.0 | 1.6 | 0.00 | 0.00 | 0.00 | 33 | 1004.3 |
| 20260505040203 | 25 | 235 | 0.0 | 1.6 | 0.00 | 0.00 | 0.00 | 33 | 1004.2 |
| 20260505040124 | 25 | 239 | 0.0 | 1.6 | 0.00 | 0.00 | 0.00 | 33 | 1004.2 |
| 20260505040004 | 25 | 0 | 0.0 | 0.0 | 0.00 | 0.00 | 0.00 | 32 | 1004.2 |
| 20260505035903 | 25 | 0 | 0.0 | 0.0 | 0.00 | 0.00 | 0.00 | 32 | 1004.2 |
| 20260505035803 | 25 | 239 | 0.0 | 1.6 | 0.00 | 0.00 | 0.00 | 33 | 1004.2 |
| 20260505035703 | 25 | 236 | 0.0 | 1.6 | 0.00 | 0.00 | 0.00 | 34 | 1004.2 |
| 20260505035604 | 25 | 0 | 0.0 | 0.0 | 0.00 | 0.00 | 0.00 | 33 | 1004.2 |
| 20260505035503 | 25 | 239 | 0.0 | 1.6 | 0.00 | 0.00 | 0.00 | 33 | 1004.2 |
| 20260505035403 | 25 | 239 | 0.0 | 1.6 | 0.00 | 0.00 | 0.00 | 32 | 1004.1 |
| 20260505035304 | 26 | 235 | 1.6 | 1.6 | 0.00 | 0.00 | 0.00 | 33 | 1004.1 |
| 20260505035203 | 26 | 227 | 0.0 | 1.6 | 0.00 | 0.00 | 0.00 | 32 | 1004.1 |
| 20260505035103 | 26 | 0 | 0.0 | 0.0 | 0.00 | 0.00 | 0.00 | 32 | 1004.2 |
| 20260505035003 | 26 | 0 | 0.0 | 0.0 | 0.00 | 0.00 | 0.00 | 32 | 1004.1 |
| 20260505034903 | 26 | 0 | 0.0 | 0.0 | 0.00 | 0.00 | 0.00 | 31 | 1003.9 |
| 20260505034803 | 26 | 0 | 0.0 | 0.0 | 0.00 | 0.00 | 0.00 | 32 | 1004.3 |
| 20260505034724 | 26 | 0 | 0.0 | 0.0 | 0.00 | 0.00 | 0.00 | 32 | 1004.1 |
| 20260505034603 | 26 | 0 | 0.0 | 0.0 | 0.00 | 0.00 | 0.00 | 32 | 1004.0 |
| 20260505034503 | 26 | 0 | 0.0 | 0.0 | 0.00 | 0.00 | 0.00 | 31 | 1004.2 |
| 20260505034403 | 26 | 0 | 0.0 | 0.0 | 0.00 | 0.00 | 0.00 | 31 | 1004.2 |
| 20260505034303 | 26 | 0 | 0.0 | 0.0 | 0.00 | 0.00 | 0.00 | 31 | 1004.0 |
| 20260505034203 | 26 | 0 | 0.0 | 0.0 | 0.00 | 0.00 | 0.00 | 31 | 1004.1 |
| 20260505034103 | 26 | 0 | 0.0 | 0.0 | 0.00 | 0.00 | 0.00 | 31 | 1003.9 |
| 20260505034003 | 26 | 0 | 0.0 | 0.0 | 0.00 | 0.00 | 0.00 | 31 | 1004.1 |
| 20260505033903 | 26 | 0 | 0.0 | 0.0 | 0.00 | 0.00 | 0.00 | 31 | 1003.9 |
| 20260505033804 | 26 | 0 | 0.0 | 0.0 | 0.00 | 0.00 | 0.00 | 32 | 1004.0 |
| 20260505033703 | 26 | 0 | 0.0 | 0.0 | 0.00 | 0.00 | 0.00 | 31 | 1003.9 |
| 20260505033624 | 26 | 0 | 0.0 | 0.0 | 0.00 | 0.00 | 0.00 | 31 | 1003.9 |
| 20260505033524 | 26 | 0 | 0.0 | 0.0 | 0.00 | 0.00 | 0.00 | 31 | 1003.9 |
| 20260505033424 | 26 | 0 | 0.0 | 0.0 | 0.00 | 0.00 | 0.00 | 31 | 1003.9 |
| 20260505033303 | 26 | 0 | 0.0 | 0.0 | 0.00 | 0.00 | 0.00 | 31 | 1004.0 |
| 20260505033203 | 26 | 0 | 0.0 | 0.0 | 0.00 | 0.00 | 0.00 | 31 | 1004.0 |
| 20260505033103 | 26 | 0 | 0.0 | 0.0 | 0.00 | 0.00 | 0.00 | 31 | 1003.9 |
| 20260505033003 | 26 | 0 | 0.0 | 0.0 | 0.00 | 0.00 | 0.00 | 31 | 1003.8 |
| 20260505032903 | 26 | 0 | 0.0 | 0.0 | 0.00 | 0.00 | 0.00 | 31 | 1004.0 |
| 20260505032824 | 26 | 0 | 0.0 | 0.0 | 0.00 | 0.00 | 0.00 | 31 | 1003.9 |
| 20260505032703 | 26 | 0 | 0.0 | 0.0 | 0.00 | 0.00 | 0.00 | 31 | 1003.9 |
| 20260505032603 | 26 | 0 | 0.0 | 0.0 | 0.00 | 0.00 | 0.00 | 31 | 1003.9 |
| 20260505032503 | 26 | 0 | 0.0 | 0.0 | 0.00 | 0.00 | 0.00 | 31 | 1003.7 |
| 20260505032403 | 26 | 0 | 0.0 | 0.0 | 0.00 | 0.00 | 0.00 | 31 | 1003.9 |
| 20260505032304 | 26 | 0 | 0.0 | 0.0 | 0.00 | 0.00 | 0.00 | 31 | 1004.0 |
| 20260505032203 | 26 | 0 | 0.0 | 0.0 | 0.00 | 0.00 | 0.00 | 31 | 1003.9 |
| 20260505032103 | 26 | 0 | 0.0 | 0.0 | 0.00 | 0.00 | 0.00 | 31 | 1003.9 |
| 20260505032003 | 26 | 0 | 0.0 | 0.0 | 0.00 | 0.00 | 0.00 | 31 | 1003.9 |
| 20260505031903 | 26 | 0 | 0.0 | 0.0 | 0.00 | 0.00 | 0.00 | 31 | 1004.0 |
| 20260505031803 | 26 | 0 | 0.0 | 0.0 | 0.00 | 0.00 | 0.00 | 30 | 1004.0 |
| 20260505031703 | 26 | 0 | 0.0 | 0.0 | 0.00 | 0.00 | 0.00 | 30 | 1003.7 |
| 20260505031603 | 26 | 0 | 0.0 | 0.0 | 0.00 | 0.00 | 0.00 | 31 | 1003.8 |
| 20260505031503 | 26 | 0 | 0.0 | 0.0 | 0.00 | 0.00 | 0.00 | 30 | 1003.7 |
| 20260505031404 | 26 | 0 | 0.0 | 0.0 | 0.00 | 0.00 | 0.00 | 30 | 1003.7 |
| 20260505031303 | 26 | 0 | 0.0 | 0.0 | 0.00 | 0.00 | 0.00 | 30 | 1003.8 |
| 20260505031203 | 26 | 0 | 0.0 | 0.0 | 0.00 | 0.00 | 0.00 | 30 | 1003.6 |
| 20260505031103 | 26 | 0 | 0.0 | 0.0 | 0.00 | 0.00 | 0.00 | 29 | 1003.9 |
| 20260505031003 | 26 | 0 | 0.0 | 0.0 | 0.00 | 0.00 | 0.00 | 29 | 1003.7 |
| 20260505030924 | 26 | 0 | 0.0 | 0.0 | 0.00 | 0.00 | 0.00 | 29 | 1003.8 |
| 20260505030803 | 26 | 0 | 0.0 | 0.0 | 0.00 | 0.00 | 0.00 | 28 | 1003.9 |
| 20260505030703 | 26 | 0 | 0.0 | 0.0 | 0.00 | 0.00 | 0.00 | 28 | 1003.9 |
| 20260505030603 | 26 | 0 | 0.0 | 0.0 | 0.00 | 0.00 | 0.00 | 28 | 1003.8 |
| 20260505030503 | 27 | 0 | 0.0 | 0.0 | 0.00 | 0.00 | 0.00 | 28 | 1003.7 |
| 20260505030403 | 27 | 0 | 0.0 | 0.0 | 0.00 | 0.00 | 0.00 | 28 | 1003.7 |
| 20260505030303 | 27 | 0 | 0.0 | 0.0 | 0.00 | 0.00 | 0.00 | 28 | 1003.7 |
| 20260505030203 | 27 | 0 | 0.0 | 0.0 | 0.00 | 0.00 | 0.00 | 27 | 1003.9 |
| 20260505030103 | 27 | 0 | 0.0 | 0.0 | 0.00 | 0.00 | 0.00 | 27 | 1003.7 |
| 20260505030004 | 27 | 0 | 0.0 | 0.0 | 0.00 | 0.00 | 0.00 | 27 | 1003.6 |
| 20260505025903 | 27 | 0 | 0.0 | 0.0 | 0.00 | 0.00 | 0.00 | 27 | 1003.7 |
| 20260505025824 | 27 | 0 | 0.0 | 0.0 | 0.00 | 0.00 | 0.00 | 26 | 1003.8 |
| 20260505025703 | 27 | 0 | 0.0 | 0.0 | 0.00 | 0.00 | 0.00 | 26 | 1003.6 |
| 20260505025603 | 27 | 0 | 0.0 | 0.0 | 0.00 | 0.00 | 0.00 | 25 | 1003.7 |
| 20260505025503 | 27 | 0 | 0.0 | 0.0 | 0.00 | 0.00 | 0.00 | 25 | 1003.6 |
| 20260505025403 | 27 | 0 | 0.0 | 0.0 | 0.00 | 0.00 | 0.00 | 25 | 1003.6 |
| 20260505025304 | 28 | 0 | 0.0 | 0.0 | 0.00 | 0.00 | 0.00 | 25 | 1003.8 |
| 20260505025203 | 28 | 0 | 0.0 | 0.0 | 0.00 | 0.00 | 0.00 | 25 | 1003.7 |
| 20260505025104 | 28 | 0 | 0.0 | 0.0 | 0.00 | 0.00 | 0.00 | 24 | 1003.8 |
| 20260505025024 | 28 | 0 | 0.0 | 0.0 | 0.00 | 0.00 | 0.00 | 25 | 1003.6 |
| 20260505024903 | 28 | 0 | 0.0 | 0.0 | 0.00 | 0.00 | 0.00 | 25 | 1003.7 |
| 20260505024824 | 28 | 0 | 0.0 | 0.0 | 0.00 | 0.00 | 0.00 | 25 | 1003.5 |
| 20260505024703 | 28 | 0 | 0.0 | 0.0 | 0.00 | 0.00 | 0.00 | 24 | 1003.7 |
| 20260505024604 | 28 | 0 | 0.0 | 0.0 | 0.00 | 0.00 | 0.00 | 24 | 1003.7 |
| 20260505024503 | 28 | 0 | 0.0 | 0.0 | 0.00 | 0.00 | 0.00 | 24 | 1003.7 |
| 20260505024424 | 28 | 0 | 0.0 | 0.0 | 0.00 | 0.00 | 0.00 | 24 | 1003.8 |
| 20260505024324 | 28 | 244 | 0.0 | 1.6 | 0.00 | 0.00 | 0.00 | 24 | 1003.7 |
| 20260505024204 | 29 | 241 | 0.0 | 1.6 | 0.00 | 0.00 | 0.00 | 23 | 1003.7 |
| 20260505024104 | 29 | 243 | 0.0 | 1.6 | 0.00 | 0.00 | 0.00 | 23 | 1003.7 |
| 20260505024003 | 29 | 246 | 0.0 | 1.6 | 0.00 | 0.00 | 0.00 | 23 | 1003.6 |
| 20260505023924 | 29 | 245 | 0.0 | 1.6 | 0.00 | 0.00 | 0.00 | 23 | 1003.7 |
| 20260505023803 | 29 | 246 | 0.0 | 1.6 | 0.00 | 0.00 | 0.00 | 23 | 1003.5 |
| 20260505023703 | 30 | 251 | 1.6 | 1.6 | 0.00 | 0.00 | 0.00 | 23 | 1003.8 |
| 20260505023603 | 30 | 256 | 1.6 | 3.2 | 0.00 | 0.00 | 0.00 | 23 | 1003.6 |
| 20260505023503 | 30 | 253 | 1.6 | 3.2 | 0.00 | 0.00 | 0.00 | 22 | 1003.6 |
| 20260505023403 | 30 | 278 | 3.2 | 3.2 | 0.00 | 0.00 | 0.00 | 22 | 1003.6 |
| 20260505023324 | 30 | 264 | 1.6 | 3.2 | 0.00 | 0.00 | 0.00 | 22 | 1003.6 |
| 20260505023203 | 30 | 264 | 1.6 | 3.2 | 0.00 | 0.00 | 0.00 | 22 | 1003.7 |
| 20260505023125 | 30 | 269 | 1.6 | 3.2 | 0.00 | 0.00 | 0.00 | 22 | 1003.6 |
| 20260505023003 | 30 | 252 | 0.0 | 1.6 | 0.00 | 0.00 | 0.00 | 22 | 1003.6 |
| 20260505022903 | 30 | 257 | 0.0 | 1.6 | 0.00 | 0.00 | 0.00 | 22 | 1003.7 |
| 20260505022804 | 30 | 251 | 1.6 | 3.2 | 0.00 | 0.00 | 0.00 | 22 | 1003.6 |
| 20260505022703 | 30 | 265 | 1.6 | 3.2 | 0.00 | 0.00 | 0.00 | 22 | 1003.6 |
| 20260505022603 | 30 | 272 | 1.6 | 3.2 | 0.00 | 0.00 | 0.00 | 21 | 1003.5 |
| 20260505022524 | 30 | 273 | 1.6 | 3.2 | 0.00 | 0.00 | 0.00 | 21 | 1003.7 |
| 20260505022403 | 30 | 253 | 1.6 | 1.6 | 0.00 | 0.00 | 0.00 | 22 | 1003.6 |
| 20260505022304 | 30 | 252 | 0.0 | 3.2 | 0.00 | 0.00 | 0.00 | 21 | 1003.6 |
| 20260505022203 | 30 | 258 | 1.6 | 3.2 | 0.00 | 0.00 | 0.00 | 22 | 1003.8 |
| 20260505022103 | 30 | 269 | 1.6 | 3.2 | 0.00 | 0.00 | 0.00 | 21 | 1003.7 |
| 20260505022024 | 30 | 259 | 1.6 | 3.2 | 0.00 | 0.00 | 0.00 | 21 | 1003.7 |
| 20260505021924 | 30 | 269 | 1.6 | 3.2 | 0.00 | 0.00 | 0.00 | 21 | 1003.7 |
| 20260505021803 | 30 | 273 | 3.2 | 4.8 | 0.00 | 0.00 | 0.00 | 21 | 1003.7 |
| 20260505021703 | 30 | 270 | 3.2 | 4.8 | 0.00 | 0.00 | 0.00 | 21 | 1003.5 |
| 20260505021603 | 30 | 302 | 3.2 | 4.8 | 0.00 | 0.00 | 0.00 | 21 | 1003.8 |
| 20260505021503 | 30 | 283 | 3.2 | 4.8 | 0.00 | 0.00 | 0.00 | 21 | 1003.8 |
| 20260505021403 | 30 | 310 | 4.8 | 4.8 | 0.00 | 0.00 | 0.00 | 21 | 1003.7 |
| 20260505021303 | 31 | 277 | 3.2 | 4.8 | 0.00 | 0.00 | 0.00 | 21 | 1003.6 |
| 20260505021203 | 31 | 265 | 1.6 | 6.4 | 0.00 | 0.00 | 0.00 | 21 | 1003.6 |
| 20260505021103 | 31 | 254 | 1.6 | 6.4 | 0.00 | 0.00 | 0.00 | 21 | 1003.7 |
| 20260505021003 | 31 | 278 | 4.8 | 6.4 | 0.00 | 0.00 | 0.00 | 21 | 1003.7 |
| 20260505020903 | 31 | 259 | 3.2 | 4.8 | 0.00 | 0.00 | 0.00 | 21 | 1003.8 |
| 20260505020824 | 31 | 261 | 3.2 | 4.8 | 0.00 | 0.00 | 0.00 | 21 | 1003.7 |
| 20260505020703 | 31 | 277 | 3.2 | 4.8 | 0.00 | 0.00 | 0.00 | 20 | 1003.7 |
| 20260505020603 | 31 | 285 | 1.6 | 4.8 | 0.00 | 0.00 | 0.00 | 20 | 1003.8 |
| 20260505020503 | 31 | 270 | 3.2 | 4.8 | 0.00 | 0.00 | 0.00 | 21 | 1003.7 |
| 20260505020403 | 31 | 322 | 3.2 | 6.4 | 0.00 | 0.00 | 0.00 | 20 | 1003.7 |
| 20260505020303 | 31 | 327 | 4.8 | 6.4 | 0.00 | 0.00 | 0.00 | 20 | 1003.8 |
| 20260505020203 | 31 | 291 | 3.2 | 4.8 | 0.00 | 0.00 | 0.00 | 20 | 1003.8 |
| 20260505020103 | 31 | 279 | 1.6 | 3.2 | 0.00 | 0.00 | 0.00 | 20 | 1003.8 |
| 20260505020003 | 31 | 241 | 1.6 | 3.2 | 0.00 | 0.00 | 0.00 | 20 | 1003.7 |
| 20260505015903 | 31 | 280 | 1.6 | 3.2 | 0.00 | 0.00 | 0.00 | 19 | 1003.7 |
| 20260505015803 | 31 | 277 | 1.6 | 6.4 | 0.00 | 0.00 | 0.00 | 21 | 1003.7 |
| 20260505015703 | 31 | 308 | 3.2 | 9.7 | 0.00 | 0.00 | 0.00 | 20 | 1003.9 |
| 20260505015603 | 31 | 329 | 4.8 | 9.7 | 0.00 | 0.00 | 0.00 | 20 | 1004.0 |
| 20260505015503 | 31 | 333 | 4.8 | 9.7 | 0.00 | 0.00 | 0.00 | 19 | 1003.6 |
| 20260505015403 | 31 | 297 | 6.4 | 14.5 | 0.00 | 0.00 | 0.00 | 21 | 1003.9 |
| 20260505015303 | 31 | 317 | 6.4 | 14.5 | 0.00 | 0.00 | 0.00 | 20 | 1003.9 |
| 20260505015203 | 31 | 319 | 3.2 | 6.4 | 0.00 | 0.00 | 0.00 | 20 | 1003.9 |
| 20260505015124 | 31 | 262 | 3.2 | 6.4 | 0.00 | 0.00 | 0.00 | 21 | 1003.8 |
| 20260505015024 | 31 | 295 | 4.8 | 6.4 | 0.00 | 0.00 | 0.00 | 20 | 1004.0 |
| 20260505014903 | 31 | 271 | 3.2 | 6.4 | 0.00 | 0.00 | 0.00 | 20 | 1003.8 |
| 20260505014824 | 31 | 274 | 1.6 | 6.4 | 0.00 | 0.00 | 0.00 | 20 | 1003.9 |
| 20260505014703 | 31 | 258 | 3.2 | 6.4 | 0.00 | 0.00 | 0.00 | 19 | 1004.0 |
| 20260505014603 | 31 | 274 | 4.8 | 6.4 | 0.00 | 0.00 | 0.00 | 21 | 1004.0 |
| 20260505014503 | 31 | 259 | 1.6 | 9.7 | 0.00 | 0.00 | 0.00 | 20 | 1004.0 |
| 20260505014403 | 31 | 312 | 4.8 | 9.7 | 0.00 | 0.00 | 0.00 | 20 | 1003.9 |
| 20260505014303 | 31 | 304 | 4.8 | 11.3 | 0.00 | 0.00 | 0.00 | 19 | 1003.9 |
| 20260505014224 | 31 | 299 | 4.8 | 11.3 | 0.00 | 0.00 | 0.00 | 22 | 1004.1 |
| 20260505014103 | 31 | 341 | 4.8 | 11.3 | 0.00 | 0.00 | 0.00 | 20 | 1004.0 |
| 20260505014003 | 31 | 336 | 8.0 | 11.3 | 0.00 | 0.00 | 0.00 | 19 | 1003.9 |
| 20260505013903 | 31 | 296 | 3.2 | 9.7 | 0.00 | 0.00 | 0.00 | 20 | 1003.9 |
| 20260505013803 | 31 | 296 | 4.8 | 9.7 | 0.00 | 0.00 | 0.00 | 19 | 1003.9 |
| 20260505013724 | 31 | 341 | 4.8 | 9.7 | 0.00 | 0.00 | 0.00 | 20 | 1003.9 |
| 20260505013603 | 31 | 303 | 3.2 | 9.7 | 0.00 | 0.00 | 0.00 | 20 | 1004.2 |
| 20260505013524 | 31 | 340 | 6.4 | 9.7 | 0.00 | 0.00 | 0.00 | 20 | 1003.9 |
| 20260505013424 | 31 | 282 | 3.2 | 6.4 | 0.00 | 0.00 | 0.00 | 20 | 1004.0 |
| 20260505013303 | 31 | 272 | 3.2 | 11.3 | 0.00 | 0.00 | 0.00 | 21 | 1004.2 |
| 20260505013203 | 31 | 320 | 6.4 | 11.3 | 0.00 | 0.00 | 0.00 | 20 | 1004.2 |
| 20260505013103 | 31 | 315 | 4.8 | 11.3 | 0.00 | 0.00 | 0.00 | 21 | 1004.2 |
| 20260505013004 | 31 | 260 | 3.2 | 11.3 | 0.00 | 0.00 | 0.00 | 22 | 1004.1 |
| 20260505012903 | 31 | 309 | 1.6 | 4.8 | 0.00 | 0.00 | 0.00 | 21 | 1004.2 |
| 20260505012803 | 31 | 259 | 3.2 | 12.9 | 0.00 | 0.00 | 0.00 | 21 | 1004.2 |
| 20260505012703 | 31 | 240 | 4.8 | 12.9 | 0.00 | 0.00 | 0.00 | 21 | 1004.1 |
| 20260505012624 | 31 | 346 | 4.8 | 9.7 | 0.00 | 0.00 | 0.00 | 20 | 1004.2 |
| 20260505012503 | 31 | 156 | 1.6 | 6.4 | 0.00 | 0.00 | 0.00 | 22 | 1004.2 |
| 20260505012403 | 31 | 263 | 3.2 | 6.4 | 0.00 | 0.00 | 0.00 | 21 | 1004.1 |
| 20260505012304 | 31 | 301 | 3.2 | 6.4 | 0.00 | 0.00 | 0.00 | 21 | 1004.1 |
| 20260505012203 | 31 | 304 | 3.2 | 4.8 | 0.00 | 0.00 | 0.00 | 22 | 1004.2 |
| 20260505012103 | 31 | 243 | 1.6 | 4.8 | 0.00 | 0.00 | 0.00 | 22 | 1004.2 |
| 20260505012024 | 31 | 245 | 1.6 | 6.4 | 0.00 | 0.00 | 0.00 | 23 | 1004.1 |
| 20260505011903 | 31 | 327 | 4.8 | 6.4 | 0.00 | 0.00 | 0.00 | 21 | 1004.0 |
| 20260505011803 | 31 | 274 | 1.6 | 3.2 | 0.00 | 0.00 | 0.00 | 22 | 1004.1 |
| 20260505011703 | 31 | 271 | 1.6 | 1.6 | 0.00 | 0.00 | 0.00 | 22 | 1004.1 |
| 20260505011624 | 31 | 252 | 0.0 | 3.2 | 0.00 | 0.00 | 0.00 | 22 | 1004.3 |
| 20260505011524 | 31 | 249 | 0.0 | 4.8 | 0.00 | 0.00 | 0.00 | 23 | 1004.2 |
| 20260505011403 | 31 | 261 | 1.6 | 3.2 | 0.00 | 0.00 | 0.00 | 22 | 1004.2 |
| 20260505011324 | 31 | 245 | 0.0 | 3.2 | 0.00 | 0.00 | 0.00 | 22 | 1004.1 |
| 20260505011225 | 31 | 237 | 1.6 | 3.2 | 0.00 | 0.00 | 0.00 | 23 | 1004.1 |
| 20260505011103 | 31 | 249 | 1.6 | 6.4 | 0.00 | 0.00 | 0.00 | 22 | 1004.3 |
| 20260505011003 | 31 | 311 | 4.8 | 6.4 | 0.00 | 0.00 | 0.00 | 22 | 1004.3 |
| 20260505010904 | 31 | 256 | 3.2 | 6.4 | 0.00 | 0.00 | 0.00 | 22 | 1004.2 |
| 20260505010803 | 31 | 285 | 4.8 | 6.4 | 0.00 | 0.00 | 0.00 | 21 | 1004.0 |
| 20260505010703 | 31 | 247 | 1.6 | 4.8 | 0.00 | 0.00 | 0.00 | 22 | 1004.0 |
| 20260505010603 | 31 | 275 | 3.2 | 4.8 | 0.00 | 0.00 | 0.00 | 22 | 1004.2 |
| 20260505010503 | 31 | 269 | 3.2 | 3.2 | 0.00 | 0.00 | 0.00 | 22 | 1004.3 |
| 20260505010403 | 31 | 252 | 0.0 | 1.6 | 0.00 | 0.00 | 0.00 | 20 | 1004.3 |
| 20260505010303 | 31 | 242 | 0.0 | 1.6 | 0.00 | 0.00 | 0.00 | 21 | 1004.3 |
| 20260505010203 | 31 | 247 | 0.0 | 3.2 | 0.00 | 0.00 | 0.00 | 22 | 1004.1 |
| 20260505010124 | 31 | 270 | 0.0 | 4.8 | 0.00 | 0.00 | 0.00 | 23 | 1004.3 |
| 20260505010004 | 31 | 243 | 1.6 | 4.8 | 0.00 | 0.00 | 0.00 | 22 | 1004.3 |
| 20260505005903 | 31 | 255 | 1.6 | 4.8 | 0.00 | 0.00 | 0.00 | 23 | 1004.1 |
| 20260505005803 | 31 | 257 | 1.6 | 4.8 | 0.00 | 0.00 | 0.00 | 21 | 1004.1 |
| 20260505005724 | 31 | 252 | 1.6 | 4.8 | 0.00 | 0.00 | 0.00 | 23 | 1004.1 |
| 20260505005603 | 31 | 283 | 4.8 | 6.4 | 0.00 | 0.00 | 0.00 | 21 | 1004.2 |
| 20260505005503 | 31 | 293 | 4.8 | 6.4 | 0.00 | 0.00 | 0.00 | 20 | 1004.2 |
| 20260505005403 | 31 | 266 | 3.2 | 4.8 | 0.00 | 0.00 | 0.00 | 21 | 1004.2 |
| 20260505005324 | 31 | 256 | 1.6 | 4.8 | 0.00 | 0.00 | 0.00 | 20 | 1004.2 |
| 20260505005203 | 32 | 241 | 1.6 | 4.8 | 0.00 | 0.00 | 0.00 | 21 | 1004.4 |
| 20260505005103 | 32 | 236 | 1.6 | 4.8 | 0.00 | 0.00 | 0.00 | 21 | 1004.2 |
| 20260505005004 | 32 | 245 | 1.6 | 3.2 | 0.00 | 0.00 | 0.00 | 21 | 1004.3 |
| 20260505004903 | 32 | 256 | 1.6 | 1.6 | 0.00 | 0.00 | 0.00 | 21 | 1004.2 |
| 20260505004803 | 32 | 225 | 1.6 | 1.6 | 0.00 | 0.00 | 0.00 | 21 | 1004.2 |
| 20260505004703 | 32 | 234 | 0.0 | 3.2 | 0.00 | 0.00 | 0.00 | 20 | 1004.3 |
| 20260505004603 | 32 | 244 | 0.0 | 3.2 | 0.00 | 0.00 | 0.00 | 20 | 1004.2 |
| 20260505004503 | 32 | 235 | 1.6 | 3.2 | 0.00 | 0.00 | 0.00 | 22 | 1004.4 |
| 20260505004403 | 32 | 229 | 1.6 | 3.2 | 0.00 | 0.00 | 0.00 | 21 | 1004.3 |
| 20260505004303 | 32 | 247 | 0.0 | 1.6 | 0.00 | 0.00 | 0.00 | 22 | 1004.2 |
| 20260505004224 | 31 | 245 | 0.0 | 3.2 | 0.00 | 0.00 | 0.00 | 22 | 1004.2 |
| 20260505004103 | 31 | 247 | 1.6 | 4.8 | 0.00 | 0.00 | 0.00 | 22 | 1004.3 |
| 20260505004003 | 31 | 263 | 3.2 | 4.8 | 0.00 | 0.00 | 0.00 | 21 | 1004.3 |
| 20260505003903 | 31 | 252 | 1.6 | 4.8 | 0.00 | 0.00 | 0.00 | 22 | 1004.4 |
| 20260505003803 | 31 | 240 | 1.6 | 4.8 | 0.00 | 0.00 | 0.00 | 23 | 1004.2 |
| 20260505003703 | 31 | 263 | 1.6 | 6.4 | 0.00 | 0.00 | 0.00 | 22 | 1004.3 |
| 20260505003603 | 31 | 264 | 1.6 | 6.4 | 0.00 | 0.00 | 0.00 | 23 | 1004.3 |
| 20260505003503 | 31 | 298 | 4.8 | 6.4 | 0.00 | 0.00 | 0.00 | 22 | 1004.4 |
| 20260505003403 | 31 | 283 | 1.6 | 4.8 | 0.00 | 0.00 | 0.00 | 22 | 1004.4 |
| 20260505003303 | 31 | 244 | 1.6 | 3.2 | 0.00 | 0.00 | 0.00 | 22 | 1004.6 |
| 20260505003203 | 31 | 234 | 0.0 | 1.6 | 0.00 | 0.00 | 0.00 | 22 | 1004.2 |
| 20260505003103 | 31 | 231 | 0.0 | 3.2 | 0.00 | 0.00 | 0.00 | 23 | 1004.4 |
| 20260505003003 | 31 | 246 | 0.0 | 4.8 | 0.00 | 0.00 | 0.00 | 25 | 1004.4 |
| 20260505002903 | 31 | 285 | 3.2 | 9.7 | 0.00 | 0.00 | 0.00 | 22 | 1004.6 |
| 20260505002803 | 31 | 316 | 6.4 | 11.3 | 0.00 | 0.00 | 0.00 | 22 | 1004.4 |
| 20260505002703 | 31 | 340 | 8.0 | 11.3 | 0.00 | 0.00 | 0.00 | 22 | 1004.6 |
| 20260505002603 | 31 | 339 | 8.0 | 11.3 | 0.00 | 0.00 | 0.00 | 22 | 1004.4 |
| 20260505002503 | 31 | 299 | 4.8 | 4.8 | 0.00 | 0.00 | 0.00 | 22 | 1004.4 |
| 20260505002403 | 31 | 257 | 1.6 | 9.7 | 0.00 | 0.00 | 0.00 | 22 | 1004.4 |
| 20260505002304 | 32 | 290 | 3.2 | 9.7 | 0.00 | 0.00 | 0.00 | 22 | 1004.3 |
| 20260505002203 | 32 | 302 | 1.6 | 6.4 | 0.00 | 0.00 | 0.00 | 22 | 1004.3 |
| 20260505002103 | 32 | 250 | 1.6 | 3.2 | 0.00 | 0.00 | 0.00 | 21 | 1004.3 |
| 20260505002003 | 32 | 253 | 1.6 | 3.2 | 0.00 | 0.00 | 0.00 | 23 | 1004.4 |
| 20260505001903 | 31 | 245 | 1.6 | 3.2 | 0.00 | 0.00 | 0.00 | 23 | 1004.4 |
| 20260505001803 | 31 | 247 | 1.6 | 3.2 | 0.00 | 0.00 | 0.00 | 22 | 1004.4 |
| 20260505001703 | 31 | 250 | 1.6 | 3.2 | 0.00 | 0.00 | 0.00 | 23 | 1004.4 |
| 20260505001603 | 31 | 248 | 1.6 | 4.8 | 0.00 | 0.00 | 0.00 | 22 | 1004.4 |
| 20260505001503 | 32 | 254 | 1.6 | 6.4 | 0.00 | 0.00 | 0.00 | 22 | 1004.4 |
| 20260505001403 | 32 | 251 | 3.2 | 6.4 | 0.00 | 0.00 | 0.00 | 23 | 1004.6 |
| 20260505001303 | 32 | 237 | 3.2 | 4.8 | 0.00 | 0.00 | 0.00 | 22 | 1004.3 |
| 20260505001224 | 32 | 238 | 1.6 | 4.8 | 0.00 | 0.00 | 0.00 | 22 | 1004.4 |
| 20260505001103 | 32 | 240 | 1.6 | 6.4 | 0.00 | 0.00 | 0.00 | 23 | 1004.4 |
| 20260505001003 | 31 | 233 | 3.2 | 6.4 | 0.00 | 0.00 | 0.00 | 23 | 1004.6 |
| 20260505000903 | 31 | 244 | 0.0 | 1.6 | 0.00 | 0.00 | 0.00 | 23 | 1004.3 |
| 20260505000803 | 31 | 252 | 0.0 | 3.2 | 0.00 | 0.00 | 0.00 | 22 | 1004.4 |
| 20260505000724 | 31 | 248 | 1.6 | 4.8 | 0.00 | 0.00 | 0.00 | 22 | 1004.4 |
| 20260505000603 | 31 | 253 | 1.6 | 4.8 | 0.00 | 0.00 | 0.00 | 22 | 1004.3 |
| 20260505000503 | 31 | 281 | 4.8 | 4.8 | 0.00 | 0.00 | 0.00 | 22 | 1004.3 |
| 20260505000405 | 31 | 259 | 1.6 | 4.8 | 0.00 | 0.00 | 0.00 | 23 | 1004.4 |
| 20260505000324 | 31 | 246 | 1.6 | 4.8 | 0.00 | 0.00 | 0.00 | 23 | 1004.4 |
| 20260505000226 | 31 | 266 | 1.6 | 6.4 | 0.00 | 0.00 | 0.00 | 23 | 1004.6 |
| 20260505000103 | 31 | 259 | 3.2 | 6.4 | 0.00 | 0.00 | 0.00 | 22 | 1004.4 |
| 20260505000003 | 31 | 279 | 4.8 | 6.4 | 0.00 | 0.00 | 0.00 | 22 | 1004.4 |
| 20260504235903 | 31 | 301 | 3.2 | 9.7 | 0.00 | 0.00 | 0.00 | 23 | 1004.3 |
| 20260504235803 | 31 | 335 | 6.4 | 9.7 | 0.00 | 0.00 | 0.00 | 22 | 1004.6 |
| 20260504235724 | 31 | 337 | 6.4 | 9.7 | 0.00 | 0.00 | 0.00 | 22 | 1004.6 |
| 20260504235603 | 31 | 352 | 6.4 | 9.7 | 0.00 | 0.00 | 0.00 | 22 | 1004.4 |
| 20260504235503 | 31 | 261 | 3.2 | 9.7 | 0.00 | 0.00 | 0.00 | 22 | 1004.8 |
| 20260504235403 | 31 | 300 | 4.8 | 9.7 | 0.00 | 0.00 | 0.00 | 24 | 1004.4 |
| 20260504235304 | 31 | 297 | 4.8 | 6.4 | 0.00 | 0.00 | 0.00 | 22 | 1004.2 |
| 20260504235203 | 31 | 232 | 1.6 | 6.4 | 0.00 | 0.00 | 0.00 | 25 | 1004.4 |
| 20260504235103 | 31 | 66 | 4.8 | 6.4 | 0.00 | 0.00 | 0.00 | 22 | 1004.3 |
| 20260504235003 | 31 | 228 | 0.0 | 9.7 | 0.00 | 0.00 | 0.00 | 22 | 1004.7 |
| 20260504234903 | 31 | 198 | 1.6 | 9.7 | 0.00 | 0.00 | 0.00 | 22 | 1004.7 |
| 20260504234803 | 31 | 91 | 3.2 | 9.7 | 0.00 | 0.00 | 0.00 | 23 | 1004.7 |
| 20260504234703 | 31 | 274 | 3.2 | 6.4 | 0.00 | 0.00 | 0.00 | 24 | 1004.6 |
| 20260504234603 | 31 | 307 | 4.8 | 6.4 | 0.00 | 0.00 | 0.00 | 22 | 1004.7 |
| 20260504234503 | 31 | 269 | 3.2 | 4.8 | 0.00 | 0.00 | 0.00 | 23 | 1004.6 |
| 20260504234403 | 31 | 333 | 1.6 | 3.2 | 0.00 | 0.00 | 0.00 | 23 | 1004.7 |
| 20260504234303 | 31 | 245 | 1.6 | 3.2 | 0.00 | 0.00 | 0.00 | 24 | 1004.6 |
| 20260504234203 | 31 | 306 | 3.2 | 3.2 | 0.00 | 0.00 | 0.00 | 22 | 1004.4 |
| 20260504234103 | 31 | 238 | 0.0 | 1.6 | 0.00 | 0.00 | 0.00 | 24 | 1004.6 |
| 20260504234003 | 31 | 240 | 0.0 | 3.2 | 0.00 | 0.00 | 0.00 | 24 | 1004.8 |
| 20260504233903 | 31 | 268 | 1.6 | 6.4 | 0.00 | 0.00 | 0.00 | 24 | 1004.4 |
| 20260504233803 | 31 | 257 | 1.6 | 6.4 | 0.00 | 0.00 | 0.00 | 22 | 1004.7 |
| 20260504233703 | 31 | 297 | 4.8 | 6.4 | 0.00 | 0.00 | 0.00 | 23 | 1004.6 |
| 20260504233603 | 31 | 307 | 4.8 | 6.4 | 0.00 | 0.00 | 0.00 | 22 | 1004.7 |
| 20260504233503 | 31 | 312 | 4.8 | 6.4 | 0.00 | 0.00 | 0.00 | 23 | 1004.4 |
| 20260504233403 | 31 | 265 | 1.6 | 4.8 | 0.00 | 0.00 | 0.00 | 23 | 1004.6 |
| 20260504233303 | 31 | 159 | 3.2 | 6.4 | 0.00 | 0.00 | 0.00 | 23 | 1004.8 |
| 20260504233224 | 31 | 91 | 3.2 | 6.4 | 0.00 | 0.00 | 0.00 | 24 | 1004.7 |
| 20260504233103 | 31 | 307 | 4.8 | 6.4 | 0.00 | 0.00 | 0.00 | 23 | 1004.4 |
| 20260504233003 | 31 | 265 | 0.0 | 3.2 | 0.00 | 0.00 | 0.00 | 22 | 1004.7 |
| 20260504232903 | 31 | 261 | 1.6 | 3.2 | 0.00 | 0.00 | 0.00 | 22 | 1004.6 |
| 20260504232803 | 31 | 240 | 0.0 | 9.7 | 0.00 | 0.00 | 0.00 | 24 | 1004.7 |
| 20260504232703 | 31 | 287 | 3.2 | 9.7 | 0.00 | 0.00 | 0.00 | 22 | 1004.4 |
| 20260504232603 | 31 | 333 | 6.4 | 9.7 | 0.00 | 0.00 | 0.00 | 22 | 1004.6 |
| 20260504232503 | 31 | 304 | 4.8 | 9.7 | 0.00 | 0.00 | 0.00 | 23 | 1004.7 |
| 20260504232424 | 31 | 293 | 4.8 | 6.4 | 0.00 | 0.00 | 0.00 | 23 | 1004.7 |
| 20260504232304 | 31 | 296 | 4.8 | 6.4 | 0.00 | 0.00 | 0.00 | 22 | 1004.6 |
| 20260504232203 | 31 | 252 | 4.8 | 11.3 | 0.00 | 0.00 | 0.00 | 22 | 1004.6 |
| 20260504232103 | 31 | 307 | 4.8 | 11.3 | 0.00 | 0.00 | 0.00 | 22 | 1004.6 |
| 20260504232003 | 31 | 247 | 1.6 | 9.7 | 0.00 | 0.00 | 0.00 | 22 | 1004.8 |
| 20260504231903 | 31 | 346 | 4.8 | 9.7 | 0.00 | 0.00 | 0.00 | 22 | 1004.6 |
| 20260504231803 | 31 | 248 | 1.6 | 4.8 | 0.00 | 0.00 | 0.00 | 22 | 1004.6 |
| 20260504231703 | 31 | 244 | 1.6 | 11.3 | 0.00 | 0.00 | 0.00 | 25 | 1004.7 |
| 20260504231603 | 31 | 271 | 3.2 | 11.3 | 0.00 | 0.00 | 0.00 | 23 | 1004.7 |
| 20260504231503 | 31 | 321 | 8.0 | 11.3 | 0.00 | 0.00 | 0.00 | 22 | 1004.7 |
| 20260504231403 | 32 | 299 | 3.2 | 6.4 | 0.00 | 0.00 | 0.00 | 22 | 1004.7 |
| 20260504231303 | 32 | 283 | 3.2 | 3.2 | 0.00 | 0.00 | 0.00 | 21 | 1004.7 |
| 20260504231203 | 31 | 239 | 1.6 | 3.2 | 0.00 | 0.00 | 0.00 | 24 | 1004.7 |
| 20260504231103 | 31 | 238 | 1.6 | 3.2 | 0.00 | 0.00 | 0.00 | 24 | 1004.7 |
| 20260504231003 | 31 | 201 | 1.6 | 3.2 | 0.00 | 0.00 | 0.00 | 22 | 1004.8 |
| 20260504230903 | 31 | 230 | 1.6 | 3.2 | 0.00 | 0.00 | 0.00 | 24 | 1004.8 |
| 20260504230803 | 31 | 260 | 1.6 | 4.8 | 0.00 | 0.00 | 0.00 | 24 | 1004.8 |
| 20260504230703 | 31 | 243 | 1.6 | 6.4 | 0.00 | 0.00 | 0.00 | 23 | 1004.9 |
| 20260504230624 | 31 | 262 | 3.2 | 6.4 | 0.00 | 0.00 | 0.00 | 25 | 1004.8 |
| 20260504230503 | 31 | 309 | 4.8 | 11.3 | 0.00 | 0.00 | 0.00 | 23 | 1004.8 |
| 20260504230403 | 31 | 298 | 6.4 | 9.7 | 0.00 | 0.00 | 0.00 | 22 | 1004.8 |
| 20260504230303 | 31 | 270 | 1.6 | 4.8 | 0.00 | 0.00 | 0.00 | 23 | 1004.8 |
| 20260504230204 | 31 | 281 | 1.6 | 4.8 | 0.00 | 0.00 | 0.00 | 23 | 1004.8 |
| 20260504230125 | 31 | 266 | 1.6 | 4.8 | 0.00 | 0.00 | 0.00 | 24 | 1004.7 |
| 20260504230005 | 31 | 307 | 3.2 | 6.4 | 0.00 | 0.00 | 0.00 | 24 | 1005.0 |
| 20260504225904 | 31 | 205 | 1.6 | 9.7 | 0.00 | 0.00 | 0.00 | 24 | 1004.8 |
| 20260504225804 | 31 | 308 | 1.6 | 9.7 | 0.00 | 0.00 | 0.00 | 26 | 1004.8 |
| 20260504225704 | 31 | 306 | 4.8 | 9.7 | 0.00 | 0.00 | 0.00 | 23 | 1004.8 |
| 20260504225605 | 31 | 228 | 1.6 | 9.7 | 0.00 | 0.00 | 0.00 | 26 | 1004.9 |
| 20260504225504 | 31 | 157 | 4.8 | 14.5 | 0.00 | 0.00 | 0.00 | 23 | 1004.8 |
| 20260504225404 | 31 | 7 | 8.0 | 14.5 | 0.00 | 0.00 | 0.00 | 23 | 1004.9 |
| 20260504225325 | 31 | 353 | 6.4 | 14.5 | 0.00 | 0.00 | 0.00 | 23 | 1004.8 |
| 20260504225225 | 31 | 327 | 8.0 | 14.5 | 0.00 | 0.00 | 0.00 | 22 | 1004.8 |
| 20260504225104 | 31 | 251 | 1.6 | 4.8 | 0.00 | 0.00 | 0.00 | 23 | 1005.0 |
| 20260504225004 | 31 | 274 | 3.2 | 4.8 | 0.00 | 0.00 | 0.00 | 28 | 1004.9 |
| 20260504224925 | 31 | 274 | 3.2 | 4.8 | 0.00 | 0.00 | 0.00 | 23 | 1004.8 |
| 20260504224805 | 31 | 270 | 3.2 | 6.4 | 0.00 | 0.00 | 0.00 | 23 | 1004.8 |
| 20260504224704 | 31 | 262 | 3.2 | 9.7 | 0.00 | 0.00 | 0.00 | 23 | 1004.8 |
| 20260504224604 | 31 | 282 | 3.2 | 9.7 | 0.00 | 0.00 | 0.00 | 24 | 1004.8 |
| 20260504224504 | 31 | 317 | 8.0 | 9.7 | 0.00 | 0.00 | 0.00 | 23 | 1004.9 |
| 20260504224404 | 31 | 289 | 4.8 | 9.7 | 0.00 | 0.00 | 0.00 | 23 | 1004.8 |
| 20260504224304 | 31 | 272 | 3.2 | 4.8 | 0.00 | 0.00 | 0.00 | 25 | 1004.8 |
| 20260504224204 | 31 | 206 | 1.6 | 4.8 | 0.00 | 0.00 | 0.00 | 23 | 1005.0 |
| 20260504224125 | 31 | 222 | 1.6 | 4.8 | 0.00 | 0.00 | 0.00 | 22 | 1004.9 |
| 20260504224004 | 31 | 201 | 1.6 | 4.8 | 0.00 | 0.00 | 0.00 | 23 | 1005.0 |
| 20260504223904 | 31 | 209 | 1.6 | 3.2 | 0.00 | 0.00 | 0.00 | 22 | 1005.1 |
| 20260504223804 | 31 | 239 | 1.6 | 3.2 | 0.00 | 0.00 | 0.00 | 23 | 1004.9 |
| 20260504223725 | 31 | 237 | 3.2 | 3.2 | 0.00 | 0.00 | 0.00 | 23 | 1005.0 |
| 20260504223604 | 31 | 209 | 1.6 | 4.8 | 0.00 | 0.00 | 0.00 | 23 | 1005.2 |
| 20260504223504 | 31 | 179 | 3.2 | 4.8 | 0.00 | 0.00 | 0.00 | 24 | 1005.1 |